| time (UTC) | temp C | wind direction | speed KPH | gust KPH | rain 1hr cm | rain 24hr cm | rain mn cm | humidity % | barometer mb |
| 20260505130224 | 26 | 205 | 1.6 | 30.6 | 0.00 | 0.00 | 0.00 | 31 | 1006.5 |
| 20260505130218 | 26 | 227 | 8.0 | 41.8 | 0.00 | 0.00 | 0.00 | 30 | 1006.6 |
| 20260505130202 | 26 | 147 | 6.4 | 41.8 | 0.00 | 0.00 | 0.00 | 29 | 1006.5 |
| 20260505130147 | 26 | 158 | 6.4 | 41.8 | 0.00 | 0.00 | 0.00 | 29 | 1006.7 |
| 20260505130132 | 26 | 5 | 4.8 | 41.8 | 0.00 | 0.00 | 0.00 | 31 | 1006.7 |
| 20260505130117 | 26 | 134 | 6.4 | 41.8 | 0.00 | 0.00 | 0.00 | 30 | 1006.7 |
| 20260505124905 | 26 | 180 | 12.9 | 25.7 | 0.00 | 0.00 | 0.00 | 29 | 1006.9 |
| 20260505124857 | 26 | 208 | 3.2 | 24.1 | 0.00 | 0.00 | 0.00 | 30 | 1006.8 |
| 20260505124842 | 27 | 201 | 1.6 | 33.8 | 0.00 | 0.00 | 0.00 | 31 | 1006.8 |
| 20260505124826 | 27 | 223 | 14.5 | 33.8 | 0.00 | 0.00 | 0.00 | 29 | 1006.8 |
| 20260505124550 | 27 | 209 | 1.6 | 33.8 | 0.00 | 0.00 | 0.00 | 29 | 1006.9 |
| 20260505124310 | 26 | 217 | 0.0 | 37.0 | 0.00 | 0.00 | 0.00 | 29 | 1006.8 |
| 20260505124208 | 26 | 187 | 0.0 | 37.0 | 0.00 | 0.00 | 0.00 | 30 | 1007.1 |
| 20260505124110 | 26 | 171 | 9.7 | 37.0 | 0.00 | 0.00 | 0.00 | 30 | 1006.8 |
| 20260505124010 | 26 | 251 | 9.7 | 37.0 | 0.00 | 0.00 | 0.00 | 29 | 1006.9 |
| 20260505123911 | 26 | 228 | 12.9 | 37.0 | 0.00 | 0.00 | 0.00 | 30 | 1007.0 |
| 20260505123829 | 26 | 262 | 4.8 | 37.0 | 0.00 | 0.00 | 0.00 | 30 | 1007.1 |
| 20260505123809 | 26 | 232 | 19.3 | 37.0 | 0.00 | 0.00 | 0.00 | 30 | 1007.1 |
| 20260505123709 | 26 | 61 | 1.6 | 37.0 | 0.00 | 0.00 | 0.00 | 29 | 1007.1 |
| 20260505123645 | 26 | 291 | 11.3 | 37.0 | 0.00 | 0.00 | 0.00 | 29 | 1006.8 |
| 20260505123629 | 26 | 306 | 3.2 | 37.0 | 0.00 | 0.00 | 0.00 | 29 | 1006.8 |
| 20260505123342 | 26 | 228 | 6.4 | 33.8 | 0.00 | 0.00 | 0.00 | 29 | 1006.8 |
| 20260505123309 | 26 | 266 | 9.7 | 33.8 | 0.00 | 0.00 | 0.00 | 29 | 1006.8 |
| 20260505123209 | 26 | 216 | 3.2 | 33.8 | 0.00 | 0.00 | 0.00 | 30 | 1007.1 |
| 20260505123109 | 26 | 164 | 11.3 | 33.8 | 0.00 | 0.00 | 0.00 | 29 | 1006.9 |
| 20260505123004 | 26 | 172 | 12.9 | 30.6 | 0.00 | 0.00 | 0.00 | 29 | 1007.0 |
| 20260505122918 | 26 | 194 | 6.4 | 33.8 | 0.00 | 0.00 | 0.00 | 28 | 1006.9 |
| 20260505122911 | 26 | 220 | 16.1 | 30.6 | 0.00 | 0.00 | 0.00 | 29 | 1006.9 |
| 20260505122857 | 26 | 195 | 8.0 | 30.6 | 0.00 | 0.00 | 0.00 | 29 | 1006.9 |
| 20260505122849 | 26 | 90 | 4.8 | 30.6 | 0.00 | 0.00 | 0.00 | 29 | 1006.9 |
| 20260505122833 | 26 | 228 | 8.0 | 33.8 | 0.00 | 0.00 | 0.00 | 30 | 1007.2 |
| 20260505122609 | 26 | 205 | 8.0 | 33.8 | 0.00 | 0.00 | 0.00 | 29 | 1006.9 |
| 20260505122553 | 26 | 181 | 0.0 | 33.8 | 0.00 | 0.00 | 0.00 | 29 | 1007.1 |
| 20260505122538 | 26 | 232 | 6.4 | 33.8 | 0.00 | 0.00 | 0.00 | 29 | 1007.0 |
| 20260505122259 | 26 | 219 | 14.5 | 33.8 | 0.00 | 0.00 | 0.00 | 29 | 1006.9 |
| 20260505122158 | 26 | 47 | 1.6 | 33.8 | 0.00 | 0.00 | 0.00 | 30 | 1007.3 |
| 20260505122058 | 26 | 217 | 20.9 | 33.8 | 0.00 | 0.00 | 0.00 | 28 | 1007.0 |
| 20260505121958 | 26 | 165 | 1.6 | 33.8 | 0.00 | 0.00 | 0.00 | 29 | 1007.0 |
| 20260505121859 | 25 | 180 | 1.6 | 33.8 | 0.00 | 0.00 | 0.00 | 30 | 1006.9 |
| 20260505121832 | 25 | 183 | 14.5 | 33.8 | 0.00 | 0.00 | 0.00 | 29 | 1007.1 |
| 20260505121758 | 25 | 219 | 12.9 | 33.8 | 0.00 | 0.00 | 0.00 | 29 | 1007.1 |
| 20260505121723 | 25 | 72 | 8.0 | 27.4 | 0.00 | 0.00 | 0.00 | 29 | 1007.2 |
| 20260505121708 | 25 | 196 | 1.6 | 27.4 | 0.00 | 0.00 | 0.00 | 30 | 1007.1 |
| 20260505121652 | 25 | 197 | 9.7 | 27.4 | 0.00 | 0.00 | 0.00 | 29 | 1007.2 |
| 20260505121637 | 25 | 172 | 1.6 | 27.4 | 0.00 | 0.00 | 0.00 | 31 | 1007.3 |
| 20260505121622 | 25 | 182 | 3.2 | 27.4 | 0.00 | 0.00 | 0.00 | 30 | 1007.0 |
| 20260505121106 | 25 | 195 | 1.6 | 30.6 | 0.00 | 0.00 | 0.00 | 31 | 1007.4 |
| 20260505121051 | 25 | 199 | 8.0 | 30.6 | 0.00 | 0.00 | 0.00 | 30 | 1007.3 |
| 20260505121037 | 25 | 153 | 0.0 | 30.6 | 0.00 | 0.00 | 0.00 | 30 | 1007.3 |
| 20260505121023 | 25 | 145 | 1.6 | 30.6 | 0.00 | 0.00 | 0.00 | 30 | 1007.5 |
| 20260505121015 | 25 | 191 | 3.2 | 30.6 | 0.00 | 0.00 | 0.00 | 30 | 1007.5 |
| 20260505120738 | 25 | 224 | 9.7 | 30.6 | 0.00 | 0.00 | 0.00 | 30 | 1007.4 |
| 20260505120503 | 25 | 181 | 9.7 | 30.6 | 0.00 | 0.00 | 0.00 | 30 | 1007.4 |
| 20260505120449 | 25 | 233 | 8.0 | 30.6 | 0.00 | 0.00 | 0.00 | 30 | 1007.4 |
| 20260505120134 | 25 | 126 | 17.7 | 30.6 | 0.00 | 0.00 | 0.00 | 30 | 1007.4 |
| 20260505120033 | 25 | 107 | 4.8 | 22.5 | 0.00 | 0.00 | 0.00 | 29 | 1007.4 |
| 20260505115934 | 25 | 189 | 6.4 | 22.5 | 0.00 | 0.00 | 0.00 | 31 | 1007.3 |
| 20260505115833 | 25 | 196 | 0.0 | 24.1 | 0.00 | 0.00 | 0.00 | 30 | 1007.2 |
| 20260505115755 | 25 | 208 | 16.1 | 24.1 | 0.00 | 0.00 | 0.00 | 30 | 1007.2 |
| 20260505115734 | 25 | 208 | 16.1 | 24.1 | 0.00 | 0.00 | 0.00 | 29 | 1007.5 |
| 20260505115633 | 25 | 166 | 14.5 | 24.1 | 0.00 | 0.00 | 0.00 | 29 | 1007.5 |
| 20260505115533 | 25 | 210 | 11.3 | 24.1 | 0.00 | 0.00 | 0.00 | 30 | 1007.3 |
| 20260505115433 | 25 | 138 | 6.4 | 24.1 | 0.00 | 0.00 | 0.00 | 29 | 1007.2 |
| 20260505115335 | 25 | 174 | 0.0 | 24.1 | 0.00 | 0.00 | 0.00 | 29 | 1007.1 |
| 20260505115249 | 25 | 184 | 0.0 | 24.1 | 0.00 | 0.00 | 0.00 | 29 | 1007.1 |
| 20260505115229 | 25 | 178 | 1.6 | 24.1 | 0.00 | 0.00 | 0.00 | 28 | 1007.3 |
| 20260505115129 | 25 | 228 | 9.7 | 24.1 | 0.00 | 0.00 | 0.00 | 29 | 1007.1 |
| 20260505115028 | 25 | 259 | 6.4 | 24.1 | 0.00 | 0.00 | 0.00 | 30 | 1007.3 |
| 20260505114927 | 25 | 207 | 3.2 | 37.0 | 0.00 | 0.00 | 0.00 | 29 | 1007.2 |
| 20260505114824 | 25 | 185 | 4.8 | 37.0 | 0.00 | 0.00 | 0.00 | 28 | 1007.3 |
| 20260505114758 | 25 | 78 | 4.8 | 37.0 | 0.00 | 0.00 | 0.00 | 29 | 1007.3 |
| 20260505114750 | 25 | 275 | 9.7 | 37.0 | 0.00 | 0.00 | 0.00 | 29 | 1007.3 |
| 20260505114734 | 25 | 236 | 8.0 | 37.0 | 0.00 | 0.00 | 0.00 | 29 | 1007.5 |
| 20260505114719 | 25 | 217 | 9.7 | 37.0 | 0.00 | 0.00 | 0.00 | 28 | 1007.7 |
| 20260505114703 | 25 | 234 | 6.4 | 37.0 | 0.00 | 0.00 | 0.00 | 28 | 1007.5 |
| 20260505114429 | 25 | 153 | 1.6 | 37.0 | 0.00 | 0.00 | 0.00 | 28 | 1007.4 |
| 20260505114111 | 25 | 232 | 1.6 | 37.0 | 0.00 | 0.00 | 0.00 | 28 | 1007.3 |
| 20260505114011 | 25 | 218 | 3.2 | 37.0 | 0.00 | 0.00 | 0.00 | 29 | 1007.2 |
| 20260505113911 | 25 | 207 | 9.7 | 37.0 | 0.00 | 0.00 | 0.00 | 28 | 1007.3 |
| 20260505113811 | 25 | 219 | 24.1 | 37.0 | 0.00 | 0.00 | 0.00 | 28 | 1007.5 |
| 20260505113744 | 25 | 219 | 24.1 | 37.0 | 0.00 | 0.00 | 0.00 | 29 | 1007.5 |
| 20260505113659 | 25 | 253 | 11.3 | 35.4 | 0.00 | 0.00 | 0.00 | 29 | 1007.4 |
| 20260505113557 | 25 | 159 | 6.4 | 35.4 | 0.00 | 0.00 | 0.00 | 29 | 1007.4 |
| 20260505113459 | 25 | 289 | 6.4 | 35.4 | 0.00 | 0.00 | 0.00 | 29 | 1007.4 |
| 20260505113359 | 25 | 199 | 1.6 | 35.4 | 0.00 | 0.00 | 0.00 | 30 | 1007.5 |
| 20260505113259 | 26 | 231 | 27.4 | 35.4 | 0.00 | 0.00 | 0.00 | 28 | 1007.5 |
| 20260505113233 | 26 | 187 | 16.1 | 25.7 | 0.00 | 0.00 | 0.00 | 28 | 1007.5 |
| 20260505113157 | 26 | 213 | 4.8 | 25.7 | 0.00 | 0.00 | 0.00 | 29 | 1007.5 |
| 20260505113127 | 26 | 252 | 14.5 | 25.7 | 0.00 | 0.00 | 0.00 | 28 | 1007.4 |
| 20260505113111 | 26 | 303 | 9.7 | 30.6 | 0.00 | 0.00 | 0.00 | 28 | 1007.5 |
| 20260505112751 | 26 | 255 | 8.0 | 30.6 | 0.00 | 0.00 | 0.00 | 29 | 1007.5 |
| 20260505112737 | 26 | 276 | 4.8 | 30.6 | 0.00 | 0.00 | 0.00 | 29 | 1007.5 |
| 20260505112652 | 26 | 220 | 6.4 | 30.6 | 0.00 | 0.00 | 0.00 | 31 | 1007.3 |
| 20260505112552 | 26 | 241 | 6.4 | 30.6 | 0.00 | 0.00 | 0.00 | 31 | 1007.1 |
| 20260505112530 | 26 | 164 | 0.0 | 30.6 | 0.00 | 0.00 | 0.00 | 31 | 1007.5 |
| 20260505112514 | 26 | 165 | 0.0 | 30.6 | 0.00 | 0.00 | 0.00 | 31 | 1007.6 |
| 20260505112245 | 26 | 190 | 3.2 | 29.0 | 0.00 | 0.00 | 0.00 | 31 | 1007.7 |
| 20260505112238 | 25 | 199 | 0.0 | 30.6 | 0.00 | 0.00 | 0.00 | 32 | 1007.5 |
| 20260505112225 | 25 | 196 | 0.0 | 30.6 | 0.00 | 0.00 | 0.00 | 32 | 1007.3 |
| 20260505112209 | 25 | 200 | 8.0 | 30.6 | 0.00 | 0.00 | 0.00 | 31 | 1007.6 |
| 20260505112154 | 25 | 197 | 1.6 | 29.0 | 0.00 | 0.00 | 0.00 | 32 | 1007.6 |
| 20260505112137 | 25 | 184 | 17.7 | 29.0 | 0.00 | 0.00 | 0.00 | 31 | 1007.4 |
| 20260505112121 | 26 | 227 | 9.7 | 29.0 | 0.00 | 0.00 | 0.00 | 31 | 1007.7 |
| 20260505112109 | 26 | 219 | 16.1 | 29.0 | 0.00 | 0.00 | 0.00 | 31 | 1007.7 |
| 20260505112059 | 26 | 174 | 12.9 | 29.0 | 0.00 | 0.00 | 0.00 | 31 | 1007.6 |
| 20260505112044 | 26 | 241 | 4.8 | 29.0 | 0.00 | 0.00 | 0.00 | 31 | 1007.5 |
| 20260505112028 | 26 | 213 | 3.2 | 29.0 | 0.00 | 0.00 | 0.00 | 30 | 1007.5 |
| 20260505111753 | 26 | 190 | 3.2 | 29.0 | 0.00 | 0.00 | 0.00 | 30 | 1007.7 |
| 20260505111303 | 25 | 233 | 9.7 | 27.4 | 0.00 | 0.00 | 0.00 | 31 | 1007.7 |
| 20260505111248 | 25 | 219 | 8.0 | 33.8 | 0.00 | 0.00 | 0.00 | 31 | 1007.3 |
| 20260505111232 | 25 | 185 | 3.2 | 33.8 | 0.00 | 0.00 | 0.00 | 31 | 1007.5 |
| 20260505111000 | 25 | 193 | 4.8 | 33.8 | 0.00 | 0.00 | 0.00 | 30 | 1007.7 |
| 20260505110729 | 25 | 198 | 9.7 | 33.8 | 0.00 | 0.00 | 0.00 | 31 | 1007.6 |
| 20260505110713 | 25 | 171 | 16.1 | 33.8 | 0.00 | 0.00 | 0.00 | 30 | 1007.5 |
| 20260505110659 | 25 | 187 | 6.4 | 33.8 | 0.00 | 0.00 | 0.00 | 31 | 1007.5 |
| 20260505110426 | 25 | 199 | 6.4 | 33.8 | 0.00 | 0.00 | 0.00 | 30 | 1007.9 |
| 20260505110154 | 25 | 218 | 9.7 | 29.0 | 0.00 | 0.00 | 0.00 | 30 | 1007.6 |
| 20260505102052 | 25 | 239 | 6.4 | 35.4 | 0.00 | 0.00 | 0.00 | 32 | 1008.0 |
| 20260505102029 | 25 | 25 | 16.1 | 35.4 | 0.00 | 0.00 | 0.00 | 32 | 1007.9 |
| 20260505101531 | 25 | 205 | 12.9 | 43.5 | 0.00 | 0.00 | 0.00 | 32 | 1008.0 |
| 20260505101515 | 25 | 156 | 0.0 | 43.5 | 0.00 | 0.00 | 0.00 | 32 | 1007.9 |
| 20260505101247 | 24 | 239 | 11.3 | 43.5 | 0.00 | 0.00 | 0.00 | 31 | 1008.3 |
| 20260505100928 | 24 | 158 | 3.2 | 43.5 | 0.00 | 0.00 | 0.00 | 31 | 1008.1 |
| 20260505100824 | 24 | 193 | 3.2 | 43.5 | 0.00 | 0.00 | 0.00 | 31 | 1008.3 |
| 20260505100724 | 24 | 329 | 6.4 | 43.5 | 0.00 | 0.00 | 0.00 | 31 | 1008.3 |
| 20260505100705 | 24 | 270 | 8.0 | 43.5 | 0.00 | 0.00 | 0.00 | 31 | 1008.1 |
| 20260505100658 | 24 | 187 | 4.8 | 43.5 | 0.00 | 0.00 | 0.00 | 31 | 1008.1 |
| 20260505100643 | 24 | 207 | 8.0 | 43.5 | 0.00 | 0.00 | 0.00 | 31 | 1008.3 |
| 20260505100627 | 25 | 212 | 16.1 | 43.5 | 0.00 | 0.00 | 0.00 | 30 | 1008.3 |
| 20260505100351 | 24 | 219 | 9.7 | 43.5 | 0.00 | 0.00 | 0.00 | 30 | 1008.3 |
| 20260505100335 | 24 | 330 | 8.0 | 43.5 | 0.00 | 0.00 | 0.00 | 31 | 1007.9 |
| 20260505100022 | 24 | 210 | 14.5 | 43.5 | 0.00 | 0.00 | 0.00 | 30 | 1008.2 |
| 20260505095957 | 24 | 80 | 6.4 | 43.5 | 0.00 | 0.00 | 0.00 | 30 | 1007.9 |
| 20260505095941 | 24 | 106 | 9.7 | 35.4 | 0.00 | 0.00 | 0.00 | 31 | 1008.1 |
| 20260505095703 | 25 | 182 | 14.5 | 35.4 | 0.00 | 0.00 | 0.00 | 31 | 1008.0 |
| 20260505095656 | 25 | 359 | 4.8 | 35.4 | 0.00 | 0.00 | 0.00 | 30 | 1008.0 |
| 20260505095641 | 25 | 227 | 16.1 | 35.4 | 0.00 | 0.00 | 0.00 | 30 | 1008.0 |
| 20260505095318 | 25 | 195 | 14.5 | 22.5 | 0.00 | 0.00 | 0.00 | 31 | 1008.2 |
| 20260505095216 | 25 | 260 | 9.7 | 22.5 | 0.00 | 0.00 | 0.00 | 30 | 1008.2 |
| 20260505095125 | 25 | 208 | 9.7 | 22.5 | 0.00 | 0.00 | 0.00 | 32 | 1008.2 |
| 20260505095117 | 25 | 211 | 11.3 | 22.5 | 0.00 | 0.00 | 0.00 | 32 | 1008.2 |
| 20260505095018 | 25 | 190 | 3.2 | 22.5 | 0.00 | 0.00 | 0.00 | 32 | 1008.3 |
| 20260505094958 | 25 | 209 | 6.4 | 22.5 | 0.00 | 0.00 | 0.00 | 31 | 1008.1 |
| 20260505094943 | 25 | 160 | 1.6 | 30.6 | 0.00 | 0.00 | 0.00 | 33 | 1008.2 |
| 20260505094706 | 25 | 196 | 4.8 | 30.6 | 0.00 | 0.00 | 0.00 | 31 | 1007.9 |
| 20260505094659 | 25 | 196 | 4.8 | 30.6 | 0.00 | 0.00 | 0.00 | 32 | 1007.9 |
| 20260505094643 | 25 | 207 | 9.7 | 30.6 | 0.00 | 0.00 | 0.00 | 32 | 1008.3 |
| 20260505094624 | 25 | 195 | 6.4 | 30.6 | 0.00 | 0.00 | 0.00 | 32 | 1008.4 |
| 20260505094347 | 25 | 216 | 3.2 | 30.6 | 0.00 | 0.00 | 0.00 | 31 | 1008.2 |
| 20260505094328 | 25 | 221 | 9.7 | 30.6 | 0.00 | 0.00 | 0.00 | 31 | 1008.3 |
| 20260505094017 | 25 | 91 | 9.7 | 30.6 | 0.00 | 0.00 | 0.00 | 31 | 1008.2 |
| 20260505093915 | 25 | 193 | 11.3 | 30.6 | 0.00 | 0.00 | 0.00 | 31 | 1008.0 |
| 20260505093804 | 25 | 220 | 11.3 | 27.4 | 0.00 | 0.00 | 0.00 | 31 | 1008.1 |
| 20260505093745 | 25 | 188 | 14.5 | 27.4 | 0.00 | 0.00 | 0.00 | 32 | 1008.3 |
| 20260505093729 | 25 | 199 | 3.2 | 27.4 | 0.00 | 0.00 | 0.00 | 32 | 1008.2 |
| 20260505093721 | 25 | 165 | 17.7 | 27.4 | 0.00 | 0.00 | 0.00 | 32 | 1008.2 |
| 20260505093357 | 25 | 274 | 4.8 | 35.4 | 0.00 | 0.00 | 0.00 | 33 | 1008.3 |
| 20260505093258 | 25 | 230 | 6.4 | 35.4 | 0.00 | 0.00 | 0.00 | 35 | 1008.3 |
| 20260505093212 | 24 | 43 | 3.2 | 35.4 | 0.00 | 0.00 | 0.00 | 35 | 1008.3 |
| 20260505093157 | 24 | 200 | 0.0 | 35.4 | 0.00 | 0.00 | 0.00 | 35 | 1008.1 |
| 20260505093147 | 24 | 165 | 0.0 | 35.4 | 0.00 | 0.00 | 0.00 | 35 | 1008.1 |
| 20260505093131 | 24 | 211 | 6.4 | 35.4 | 0.00 | 0.00 | 0.00 | 33 | 1008.0 |
| 20260505093115 | 24 | 203 | 9.7 | 35.4 | 0.00 | 0.00 | 0.00 | 33 | 1008.3 |
| 20260505092837 | 25 | 279 | 12.9 | 35.4 | 0.00 | 0.00 | 0.00 | 33 | 1008.2 |
| 20260505092822 | 25 | 213 | 14.5 | 37.0 | 0.00 | 0.00 | 0.00 | 33 | 1008.2 |
| 20260505092554 | 24 | 199 | 8.0 | 38.6 | 0.00 | 0.00 | 0.00 | 33 | 1008.3 |
| 20260505092234 | 24 | 223 | 3.2 | 38.6 | 0.00 | 0.00 | 0.00 | 35 | 1008.3 |
| 20260505092133 | 24 | 178 | 9.7 | 38.6 | 0.00 | 0.00 | 0.00 | 33 | 1008.2 |
| 20260505092101 | 24 | 227 | 20.9 | 38.6 | 0.00 | 0.00 | 0.00 | 35 | 1008.2 |
| 20260505092029 | 24 | 199 | 3.2 | 38.6 | 0.00 | 0.00 | 0.00 | 33 | 1008.5 |
| 20260505092003 | 24 | 165 | 8.0 | 38.6 | 0.00 | 0.00 | 0.00 | 33 | 1008.3 |
| 20260505091947 | 24 | 222 | 8.0 | 38.6 | 0.00 | 0.00 | 0.00 | 35 | 1008.3 |
| 20260505091703 | 24 | 227 | 12.9 | 38.6 | 0.00 | 0.00 | 0.00 | 32 | 1008.4 |
| 20260505091650 | 24 | 199 | 14.5 | 38.6 | 0.00 | 0.00 | 0.00 | 32 | 1008.4 |
| 20260505091641 | 24 | 217 | 16.1 | 35.4 | 0.00 | 0.00 | 0.00 | 33 | 1008.6 |
| 20260505091321 | 24 | 140 | 1.6 | 35.4 | 0.00 | 0.00 | 0.00 | 35 | 1008.3 |
| 20260505091220 | 24 | 233 | 14.5 | 35.4 | 0.00 | 0.00 | 0.00 | 35 | 1008.2 |
| 20260505091149 | 24 | 58 | 16.1 | 37.0 | 0.00 | 0.00 | 0.00 | 35 | 1008.3 |
| 20260505091131 | 24 | 148 | 17.7 | 37.0 | 0.00 | 0.00 | 0.00 | 36 | 1008.3 |
| 20260505091122 | 24 | 196 | 19.3 | 37.0 | 0.00 | 0.00 | 0.00 | 35 | 1008.3 |
| 20260505091107 | 24 | 54 | 3.2 | 56.3 | 0.00 | 0.00 | 0.00 | 36 | 1008.4 |
| 20260505091050 | 25 | 158 | 3.2 | 56.3 | 0.00 | 0.00 | 0.00 | 35 | 1008.4 |
| 20260505091035 | 25 | 135 | 9.7 | 56.3 | 0.00 | 0.00 | 0.00 | 35 | 1008.5 |
| 20260505090801 | 24 | 174 | 6.4 | 56.3 | 0.00 | 0.00 | 0.00 | 35 | 1008.4 |
| 20260505090417 | 24 | 187 | 6.4 | 56.3 | 0.00 | 0.00 | 0.00 | 35 | 1008.6 |
| 20260505090402 | 25 | 160 | 9.7 | 56.3 | 0.00 | 0.00 | 0.00 | 35 | 1008.4 |
| 20260505090353 | 24 | 212 | 17.7 | 56.3 | 0.00 | 0.00 | 0.00 | 33 | 1008.6 |
| 20260505090335 | 25 | 211 | 24.1 | 56.3 | 0.00 | 0.00 | 0.00 | 33 | 1008.4 |
| 20260505090319 | 25 | 199 | 19.3 | 56.3 | 0.00 | 0.00 | 0.00 | 35 | 1008.4 |
| 20260505090016 | 25 | 215 | 19.3 | 30.6 | 0.00 | 0.00 | 0.00 | 35 | 1008.5 |
| 20260505085932 | 24 | 228 | 6.4 | 25.7 | 0.00 | 0.00 | 0.00 | 38 | 1008.5 |
| 20260505085915 | 24 | 101 | 11.3 | 25.7 | 0.00 | 0.00 | 0.00 | 37 | 1008.5 |
| 20260505085553 | 24 | 209 | 4.8 | 24.1 | 0.00 | 0.00 | 0.00 | 38 | 1008.5 |
| 20260505085443 | 24 | 217 | 6.4 | 24.1 | 0.00 | 0.00 | 0.00 | 38 | 1008.4 |
| 20260505085342 | 24 | 214 | 8.0 | 24.1 | 0.00 | 0.00 | 0.00 | 39 | 1008.7 |
| 20260505085241 | 24 | 135 | 3.2 | 24.1 | 0.00 | 0.00 | 0.00 | 39 | 1008.5 |
| 20260505085143 | 24 | 146 | 8.0 | 24.1 | 0.00 | 0.00 | 0.00 | 39 | 1008.4 |
| 20260505085041 | 24 | 226 | 17.7 | 24.1 | 0.00 | 0.00 | 0.00 | 38 | 1008.5 |
| 20260505084725 | 23 | 222 | 14.5 | 41.8 | 0.00 | 0.00 | 0.00 | 38 | 1008.7 |
| 20260505084708 | 23 | 225 | 8.0 | 41.8 | 0.00 | 0.00 | 0.00 | 39 | 1008.6 |
| 20260505084651 | 23 | 297 | 11.3 | 41.8 | 0.00 | 0.00 | 0.00 | 39 | 1008.8 |
| 20260505084644 | 23 | 213 | 24.1 | 41.8 | 0.00 | 0.00 | 0.00 | 39 | 1008.8 |
| 20260505084322 | 23 | 217 | 14.5 | 20.9 | 0.00 | 0.00 | 0.00 | 40 | 1008.7 |
| 20260505084305 | 23 | 157 | 8.0 | 20.9 | 0.00 | 0.00 | 0.00 | 41 | 1008.6 |
| 20260505084256 | 23 | 204 | 8.0 | 20.9 | 0.00 | 0.00 | 0.00 | 41 | 1008.8 |
| 20260505084240 | 23 | 72 | 6.4 | 20.9 | 0.00 | 0.00 | 0.00 | 41 | 1008.6 |
| 20260505084012 | 23 | 144 | 6.4 | 20.9 | 0.00 | 0.00 | 0.00 | 41 | 1008.6 |
| 20260505083912 | 23 | 190 | 3.2 | 20.9 | 0.00 | 0.00 | 0.00 | 41 | 1008.7 |
| 20260505083811 | 23 | 145 | 3.2 | 22.5 | 0.00 | 0.00 | 0.00 | 43 | 1008.8 |
| 20260505083711 | 23 | 185 | 0.0 | 22.5 | 0.00 | 0.00 | 0.00 | 43 | 1008.7 |
| 20260505083611 | 23 | 205 | 1.6 | 22.5 | 0.00 | 0.00 | 0.00 | 43 | 1008.8 |
| 20260505083520 | 23 | 189 | 9.7 | 22.5 | 0.00 | 0.00 | 0.00 | 43 | 1008.8 |
| 20260505083513 | 23 | 255 | 9.7 | 22.5 | 0.00 | 0.00 | 0.00 | 43 | 1008.8 |
| 20260505083406 | 23 | 146 | 3.2 | 22.5 | 0.00 | 0.00 | 0.00 | 43 | 1008.9 |
| 20260505083300 | 23 | 220 | 3.2 | 22.5 | 0.00 | 0.00 | 0.00 | 42 | 1008.6 |
| 20260505083200 | 23 | 73 | 6.4 | 22.5 | 0.00 | 0.00 | 0.00 | 43 | 1008.8 |
| 20260505083058 | 23 | 188 | 6.4 | 22.5 | 0.00 | 0.00 | 0.00 | 43 | 1008.9 |
| 20260505083018 | 23 | 206 | 8.0 | 22.5 | 0.00 | 0.00 | 0.00 | 43 | 1008.8 |
| 20260505082958 | 23 | 203 | 8.0 | 22.5 | 0.00 | 0.00 | 0.00 | 43 | 1008.8 |
| 20260505082847 | 23 | 217 | 19.3 | 22.5 | 0.00 | 0.00 | 0.00 | 43 | 1009.0 |
| 20260505082741 | 23 | 139 | 4.8 | 22.5 | 0.00 | 0.00 | 0.00 | 43 | 1008.7 |
| 20260505082701 | 23 | 179 | 12.9 | 22.5 | 0.00 | 0.00 | 0.00 | 42 | 1009.0 |
| 20260505082639 | 23 | 26 | 3.2 | 22.5 | 0.00 | 0.00 | 0.00 | 43 | 1008.9 |
| 20260505082317 | 23 | 187 | 3.2 | 22.5 | 0.00 | 0.00 | 0.00 | 43 | 1008.9 |
| 20260505082218 | 23 | 210 | 6.4 | 22.5 | 0.00 | 0.00 | 0.00 | 42 | 1008.9 |
| 20260505082117 | 23 | 213 | 16.1 | 22.5 | 0.00 | 0.00 | 0.00 | 42 | 1008.8 |
| 20260505082017 | 23 | 151 | 3.2 | 22.5 | 0.00 | 0.00 | 0.00 | 42 | 1009.1 |
| 20260505081916 | 22 | 243 | 4.8 | 25.7 | 0.00 | 0.00 | 0.00 | 43 | 1008.9 |
| 20260505081818 | 22 | 221 | 9.7 | 29.0 | 0.00 | 0.00 | 0.00 | 42 | 1009.1 |
| 20260505081717 | 22 | 198 | 8.0 | 29.0 | 0.00 | 0.00 | 0.00 | 43 | 1008.9 |
| 20260505081701 | 22 | 146 | 6.4 | 29.0 | 0.00 | 0.00 | 0.00 | 42 | 1008.7 |
| 20260505081639 | 23 | 191 | 8.0 | 29.0 | 0.00 | 0.00 | 0.00 | 42 | 1009.0 |
| 20260505081317 | 23 | 135 | 1.6 | 29.0 | 0.00 | 0.00 | 0.00 | 43 | 1009.1 |
| 20260505081217 | 23 | 206 | 11.3 | 29.0 | 0.00 | 0.00 | 0.00 | 42 | 1009.3 |
| 20260505081118 | 23 | 206 | 1.6 | 29.0 | 0.00 | 0.00 | 0.00 | 42 | 1009.1 |
| 20260505081052 | 23 | 269 | 11.3 | 29.0 | 0.00 | 0.00 | 0.00 | 41 | 1009.0 |
| 20260505081036 | 23 | 243 | 14.5 | 20.9 | 0.00 | 0.00 | 0.00 | 41 | 1009.1 |
| 20260505081020 | 23 | 193 | 9.7 | 16.1 | 0.00 | 0.00 | 0.00 | 42 | 1009.0 |
| 20260505081004 | 23 | 202 | 4.8 | 16.1 | 0.00 | 0.00 | 0.00 | 42 | 1009.2 |
| 20260505080948 | 23 | 186 | 3.2 | 16.1 | 0.00 | 0.00 | 0.00 | 42 | 1009.1 |
| 20260505080930 | 23 | 198 | 8.0 | 16.1 | 0.00 | 0.00 | 0.00 | 42 | 1009.0 |
| 20260505080704 | 23 | 208 | 4.8 | 16.1 | 0.00 | 0.00 | 0.00 | 42 | 1009.2 |
| 20260505080647 | 23 | 200 | 4.8 | 12.9 | 0.00 | 0.00 | 0.00 | 41 | 1009.2 |
| 20260505080630 | 23 | 203 | 3.2 | 12.9 | 0.00 | 0.00 | 0.00 | 42 | 1009.1 |
| 20260505080354 | 23 | 91 | 1.6 | 12.9 | 0.00 | 0.00 | 0.00 | 41 | 1009.1 |
| 20260505080128 | 23 | 56 | 1.6 | 12.9 | 0.00 | 0.00 | 0.00 | 42 | 1009.1 |
| 20260505075547 | 23 | 180 | 0.0 | 12.9 | 0.00 | 0.00 | 0.00 | 41 | 1009.3 |
| 20260505075453 | 23 | 86 | 3.2 | 12.9 | 0.00 | 0.00 | 0.00 | 41 | 1009.3 |
| 20260505075446 | 23 | 96 | 6.4 | 12.9 | 0.00 | 0.00 | 0.00 | 41 | 1009.3 |
| 20260505075425 | 23 | 203 | 4.8 | 25.7 | 0.00 | 0.00 | 0.00 | 42 | 1009.4 |
| 20260505075415 | 23 | 137 | 3.2 | 14.5 | 0.00 | 0.00 | 0.00 | 41 | 1009.4 |
| 20260505075358 | 23 | 90 | 1.6 | 24.1 | 0.00 | 0.00 | 0.00 | 41 | 1009.3 |
| 20260505075342 | 23 | 66 | 1.6 | 24.1 | 0.00 | 0.00 | 0.00 | 41 | 1009.0 |
| 20260505075324 | 23 | 191 | 1.6 | 25.7 | 0.00 | 0.00 | 0.00 | 41 | 1009.5 |
| 20260505075056 | 23 | 203 | 4.8 | 25.7 | 0.00 | 0.00 | 0.00 | 43 | 1009.4 |
| 20260505075039 | 22 | 212 | 0.0 | 25.7 | 0.00 | 0.00 | 0.00 | 44 | 1009.2 |
| 20260505075024 | 22 | 141 | 0.0 | 25.7 | 0.00 | 0.00 | 0.00 | 42 | 1009.5 |
| 20260505074448 | 22 | 231 | 8.0 | 25.7 | 0.00 | 0.00 | 0.00 | 42 | 1009.5 |
| 20260505074442 | 22 | 229 | 9.7 | 25.7 | 0.00 | 0.00 | 0.00 | 42 | 1009.5 |
| 20260505074342 | 22 | 219 | 12.9 | 25.7 | 0.00 | 0.00 | 0.00 | 41 | 1009.4 |
| 20260505074246 | 22 | 48 | 8.0 | 20.9 | 0.00 | 0.00 | 0.00 | 42 | 1009.5 |
| 20260505074240 | 22 | 264 | 9.7 | 25.7 | 0.00 | 0.00 | 0.00 | 41 | 1009.5 |
| 20260505074224 | 22 | 203 | 12.9 | 25.7 | 0.00 | 0.00 | 0.00 | 41 | 1009.4 |
| 20260505074208 | 22 | 182 | 3.2 | 20.9 | 0.00 | 0.00 | 0.00 | 41 | 1009.5 |
| 20260505073939 | 22 | 242 | 8.0 | 20.9 | 0.00 | 0.00 | 0.00 | 42 | 1009.5 |
| 20260505073840 | 22 | 131 | 1.6 | 20.9 | 0.00 | 0.00 | 0.00 | 43 | 1009.4 |
| 20260505073739 | 22 | 172 | 6.4 | 20.9 | 0.00 | 0.00 | 0.00 | 42 | 1009.5 |
| 20260505073639 | 22 | 59 | 3.2 | 20.9 | 0.00 | 0.00 | 0.00 | 42 | 1009.3 |
| 20260505073540 | 22 | 203 | 1.6 | 20.9 | 0.00 | 0.00 | 0.00 | 42 | 1009.3 |
| 20260505073447 | 22 | 179 | 4.8 | 20.9 | 0.00 | 0.00 | 0.00 | 42 | 1009.4 |
| 20260505073440 | 22 | 175 | 1.6 | 20.9 | 0.00 | 0.00 | 0.00 | 42 | 1009.4 |
| 20260505073343 | 22 | 102 | 0.0 | 20.9 | 0.00 | 0.00 | 0.00 | 42 | 1009.5 |
| 20260505073318 | 22 | 232 | 8.0 | 20.9 | 0.00 | 0.00 | 0.00 | 42 | 1009.3 |
| 20260505073300 | 22 | 182 | 0.0 | 20.9 | 0.00 | 0.00 | 0.00 | 42 | 1009.4 |
| 20260505073239 | 22 | 201 | 6.4 | 20.9 | 0.00 | 0.00 | 0.00 | 42 | 1009.6 |
| 20260505073222 | 22 | 198 | 9.7 | 17.7 | 0.00 | 0.00 | 0.00 | 41 | 1009.6 |
| 20260505073215 | 22 | 232 | 6.4 | 17.7 | 0.00 | 0.00 | 0.00 | 41 | 1009.4 |
| 20260505072636 | 22 | 259 | 3.2 | 17.7 | 0.00 | 0.00 | 0.00 | 42 | 1009.6 |
| 20260505072544 | 22 | 195 | 9.7 | 17.7 | 0.00 | 0.00 | 0.00 | 42 | 1009.7 |
| 20260505072526 | 22 | 183 | 8.0 | 16.1 | 0.00 | 0.00 | 0.00 | 41 | 1009.5 |
| 20260505072517 | 22 | 206 | 11.3 | 17.7 | 0.00 | 0.00 | 0.00 | 42 | 1009.7 |
| 20260505072511 | 22 | 205 | 4.8 | 17.7 | 0.00 | 0.00 | 0.00 | 42 | 1009.4 |
| 20260505072453 | 21 | 136 | 1.6 | 17.7 | 0.00 | 0.00 | 0.00 | 43 | 1009.6 |
| 20260505072220 | 21 | 209 | 8.0 | 17.7 | 0.00 | 0.00 | 0.00 | 42 | 1009.5 |
| 20260505072204 | 22 | 184 | 9.7 | 17.7 | 0.00 | 0.00 | 0.00 | 42 | 1009.5 |
| 20260505071935 | 22 | 185 | 3.2 | 16.1 | 0.00 | 0.00 | 0.00 | 41 | 1009.7 |
| 20260505071835 | 22 | 134 | 3.2 | 17.7 | 0.00 | 0.00 | 0.00 | 41 | 1009.7 |
| 20260505071808 | 22 | 212 | 12.9 | 17.7 | 0.00 | 0.00 | 0.00 | 42 | 1009.7 |
| 20260505071800 | 22 | 202 | 3.2 | 17.7 | 0.00 | 0.00 | 0.00 | 41 | 1009.8 |
| 20260505071745 | 22 | 206 | 4.8 | 17.7 | 0.00 | 0.00 | 0.00 | 42 | 1009.5 |
| 20260505071729 | 22 | 185 | 6.4 | 17.7 | 0.00 | 0.00 | 0.00 | 41 | 1009.4 |
| 20260505071707 | 22 | 192 | 8.0 | 17.7 | 0.00 | 0.00 | 0.00 | 42 | 1009.4 |
| 20260505071428 | 22 | 200 | 1.6 | 17.7 | 0.00 | 0.00 | 0.00 | 42 | 1009.6 |
| 20260505071412 | 22 | 198 | 9.7 | 17.7 | 0.00 | 0.00 | 0.00 | 42 | 1009.7 |
| 20260505070828 | 22 | 185 | 0.0 | 16.1 | 0.00 | 0.00 | 0.00 | 41 | 1009.7 |
| 20260505070729 | 22 | 53 | 3.2 | 16.1 | 0.00 | 0.00 | 0.00 | 42 | 1009.6 |
| 20260505070711 | 22 | 90 | 3.2 | 16.1 | 0.00 | 0.00 | 0.00 | 43 | 1009.7 |
| 20260505070656 | 22 | 89 | 3.2 | 16.1 | 0.00 | 0.00 | 0.00 | 42 | 1009.6 |
| 20260505070639 | 22 | 237 | 9.7 | 16.1 | 0.00 | 0.00 | 0.00 | 42 | 1009.6 |
| 20260505070333 | 22 | 194 | 6.4 | 14.5 | 0.00 | 0.00 | 0.00 | 42 | 1009.7 |
| 20260505070328 | 22 | 134 | 0.0 | 14.5 | 0.00 | 0.00 | 0.00 | 44 | 1010.0 |
| 20260505070316 | 21 | 181 | 0.0 | 16.1 | 0.00 | 0.00 | 0.00 | 43 | 1009.7 |
| 20260505070312 | 21 | 248 | 1.6 | 16.1 | 0.00 | 0.00 | 0.00 | 44 | 1009.8 |
| 20260505070306 | 21 | 168 | 0.0 | 6.4 | 0.00 | 0.00 | 0.00 | 42 | 1009.9 |
| 20260505070258 | 21 | 185 | 1.6 | 14.5 | 0.00 | 0.00 | 0.00 | 43 | 1009.5 |
| 20260505070242 | 21 | 174 | 0.0 | 14.5 | 0.00 | 0.00 | 0.00 | 43 | 1009.7 |
| 20260505070225 | 21 | 239 | 6.4 | 14.5 | 0.00 | 0.00 | 0.00 | 43 | 1009.9 |
| 20260505065959 | 22 | 194 | 6.4 | 14.5 | 0.00 | 0.00 | 0.00 | 42 | 1009.7 |
| 20260505065943 | 22 | 204 | 3.2 | 9.7 | 0.00 | 0.00 | 0.00 | 42 | 1009.7 |
| 20260505065928 | 22 | 198 | 3.2 | 14.5 | 0.00 | 0.00 | 0.00 | 43 | 1010.0 |
| 20260505065911 | 22 | 187 | 4.8 | 14.5 | 0.00 | 0.00 | 0.00 | 43 | 1009.8 |
| 20260505065855 | 22 | 172 | 1.6 | 14.5 | 0.00 | 0.00 | 0.00 | 42 | 1009.9 |
| 20260505065833 | 22 | 210 | 4.8 | 14.5 | 0.00 | 0.00 | 0.00 | 42 | 1009.8 |
| 20260505065816 | 22 | 210 | 1.6 | 14.5 | 0.00 | 0.00 | 0.00 | 43 | 1009.8 |
| 20260505065800 | 22 | 63 | 0.0 | 14.5 | 0.00 | 0.00 | 0.00 | 45 | 1009.7 |
| 20260505065743 | 21 | 224 | 1.6 | 14.5 | 0.00 | 0.00 | 0.00 | 43 | 1010.0 |
| 20260505065251 | 21 | 130 | 0.0 | 16.1 | 0.00 | 0.00 | 0.00 | 43 | 1009.7 |
| 20260505065235 | 21 | 199 | 9.7 | 16.1 | 0.00 | 0.00 | 0.00 | 43 | 1009.9 |
| 20260505065219 | 21 | 153 | 0.0 | 16.1 | 0.00 | 0.00 | 0.00 | 43 | 1009.8 |
| 20260505065203 | 21 | 57 | 1.6 | 16.1 | 0.00 | 0.00 | 0.00 | 42 | 1009.6 |
| 20260505064451 | 21 | 174 | 3.2 | 16.1 | 0.00 | 0.00 | 0.00 | 43 | 1009.6 |
| 20260505064436 | 21 | 195 | 3.2 | 16.1 | 0.00 | 0.00 | 0.00 | 43 | 1009.9 |
| 20260505064420 | 21 | 171 | 1.6 | 16.1 | 0.00 | 0.00 | 0.00 | 43 | 1009.9 |
| 20260505064405 | 21 | 214 | 12.9 | 16.1 | 0.00 | 0.00 | 0.00 | 44 | 1009.8 |
| 20260505064350 | 21 | 193 | 8.0 | 11.3 | 0.00 | 0.00 | 0.00 | 44 | 1010.0 |
| 20260505064123 | 21 | 88 | 3.2 | 11.3 | 0.00 | 0.00 | 0.00 | 44 | 1009.8 |
| 20260505063846 | 21 | 139 | 3.2 | 11.3 | 0.00 | 0.00 | 0.00 | 43 | 1009.9 |
| 20260505063830 | 21 | 187 | 6.4 | 11.3 | 0.00 | 0.00 | 0.00 | 43 | 1009.8 |
| 20260505063300 | 21 | 78 | 0.0 | 11.3 | 0.00 | 0.00 | 0.00 | 44 | 1009.8 |
| 20260505063157 | 21 | 164 | 0.0 | 11.3 | 0.00 | 0.00 | 0.00 | 43 | 1009.9 |
| 20260505063058 | 21 | 64 | 1.6 | 11.3 | 0.00 | 0.00 | 0.00 | 43 | 1009.8 |
| 20260505062958 | 21 | 177 | 0.0 | 11.3 | 0.00 | 0.00 | 0.00 | 44 | 1009.8 |
| 20260505062918 | 21 | 185 | 0.0 | 11.3 | 0.00 | 0.00 | 0.00 | 45 | 1009.8 |
| 20260505062857 | 21 | 183 | 0.0 | 11.3 | 0.00 | 0.00 | 0.00 | 44 | 1009.8 |
| 20260505062757 | 21 | 183 | 0.0 | 11.3 | 0.00 | 0.00 | 0.00 | 45 | 1009.9 |
| 20260505062725 | 20 | 194 | 0.0 | 11.3 | 0.00 | 0.00 | 0.00 | 45 | 1009.8 |
| 20260505062712 | 20 | 157 | 0.0 | 11.3 | 0.00 | 0.00 | 0.00 | 45 | 1009.7 |
| 20260505062437 | 20 | 223 | 6.4 | 11.3 | 0.00 | 0.00 | 0.00 | 46 | 1009.8 |
| 20260505062430 | 20 | 210 | 8.0 | 11.3 | 0.00 | 0.00 | 0.00 | 45 | 1009.8 |
| 20260505062411 | 20 | 173 | 4.8 | 11.3 | 0.00 | 0.00 | 0.00 | 44 | 1010.1 |
| 20260505062052 | 20 | 95 | 1.6 | 11.3 | 0.00 | 0.00 | 0.00 | 45 | 1009.9 |
| 20260505061951 | 20 | 160 | 1.6 | 11.3 | 0.00 | 0.00 | 0.00 | 44 | 1010.0 |
| 20260505061911 | 20 | 72 | 0.0 | 11.3 | 0.00 | 0.00 | 0.00 | 45 | 1009.8 |
| 20260505061851 | 20 | 176 | 3.2 | 11.3 | 0.00 | 0.00 | 0.00 | 44 | 1009.8 |
| 20260505061753 | 20 | 199 | 4.8 | 11.3 | 0.00 | 0.00 | 0.00 | 45 | 1010.2 |
| 20260505061728 | 20 | 91 | 0.0 | 14.5 | 0.00 | 0.00 | 0.00 | 48 | 1009.9 |
| 20260505061711 | 20 | 198 | 3.2 | 14.5 | 0.00 | 0.00 | 0.00 | 45 | 1010.1 |
| 20260505061407 | 20 | 177 | 1.6 | 14.5 | 0.00 | 0.00 | 0.00 | 45 | 1009.9 |
| 20260505061347 | 20 | 177 | 1.6 | 14.5 | 0.00 | 0.00 | 0.00 | 45 | 1009.9 |
| 20260505061322 | 20 | 112 | 1.6 | 14.5 | 0.00 | 0.00 | 0.00 | 45 | 1010.0 |
| 20260505061306 | 20 | 181 | 3.2 | 14.5 | 0.00 | 0.00 | 0.00 | 45 | 1010.1 |
| 20260505060946 | 20 | 212 | 3.2 | 14.5 | 0.00 | 0.00 | 0.00 | 45 | 1010.1 |
| 20260505060906 | 20 | 91 | 0.0 | 14.5 | 0.00 | 0.00 | 0.00 | 45 | 1010.1 |
| 20260505060846 | 20 | 157 | 1.6 | 14.5 | 0.00 | 0.00 | 0.00 | 46 | 1010.1 |
| 20260505060758 | 20 | 239 | 11.3 | 14.5 | 0.00 | 0.00 | 0.00 | 45 | 1010.2 |
| 20260505060743 | 20 | 168 | 0.0 | 14.5 | 0.00 | 0.00 | 0.00 | 47 | 1010.0 |
| 20260505060728 | 20 | 185 | 1.6 | 14.5 | 0.00 | 0.00 | 0.00 | 46 | 1010.0 |
| 20260505060713 | 20 | 194 | 3.2 | 14.5 | 0.00 | 0.00 | 0.00 | 46 | 1009.9 |
| 20260505060657 | 20 | 60 | 1.6 | 14.5 | 0.00 | 0.00 | 0.00 | 46 | 1009.9 |
| 20260505060429 | 20 | 157 | 0.0 | 14.5 | 0.00 | 0.00 | 0.00 | 49 | 1009.9 |
| 20260505055855 | 20 | 198 | 4.8 | 6.4 | 0.00 | 0.00 | 0.00 | 45 | 1009.9 |
| 20260505055848 | 20 | 203 | 1.6 | 6.4 | 0.00 | 0.00 | 0.00 | 46 | 1009.9 |
| 20260505055745 | 20 | 170 | 1.6 | 6.4 | 0.00 | 0.00 | 0.00 | 46 | 1010.1 |
| 20260505055657 | 19 | 175 | 0.0 | 6.4 | 0.00 | 0.00 | 0.00 | 47 | 1010.1 |
| 20260505055641 | 19 | 121 | 0.0 | 9.7 | 0.00 | 0.00 | 0.00 | 49 | 1009.9 |
| 20260505055627 | 19 | 195 | 0.0 | 9.7 | 0.00 | 0.00 | 0.00 | 47 | 1010.0 |
| 20260505055612 | 19 | 200 | 4.8 | 9.7 | 0.00 | 0.00 | 0.00 | 47 | 1010.0 |
| 20260505055602 | 19 | 182 | 0.0 | 9.7 | 0.00 | 0.00 | 0.00 | 46 | 1010.4 |
| 20260505055545 | 19 | 192 | 4.8 | 9.7 | 0.00 | 0.00 | 0.00 | 46 | 1010.1 |
| 20260505055529 | 19 | 178 | 3.2 | 9.7 | 0.00 | 0.00 | 0.00 | 47 | 1010.1 |
| 20260505055035 | 18 | 200 | 0.0 | 9.7 | 0.00 | 0.00 | 0.00 | 48 | 1010.1 |
| 20260505054752 | 18 | 93 | 0.0 | 9.7 | 0.00 | 0.00 | 0.00 | 49 | 1009.9 |
| 20260505054736 | 18 | 174 | 0.0 | 9.7 | 0.00 | 0.00 | 0.00 | 49 | 1010.1 |
| 20260505054418 | 19 | 140 | 1.6 | 6.4 | 0.00 | 0.00 | 0.00 | 48 | 1010.1 |
| 20260505054403 | 19 | 136 | 1.6 | 6.4 | 0.00 | 0.00 | 0.00 | 49 | 1010.1 |
| 20260505054317 | 19 | 169 | 1.6 | 6.4 | 0.00 | 0.00 | 0.00 | 48 | 1009.9 |
| 20260505054217 | 18 | 173 | 0.0 | 6.4 | 0.00 | 0.00 | 0.00 | 49 | 1010.0 |
| 20260505054151 | 18 | 57 | 3.2 | 4.8 | 0.00 | 0.00 | 0.00 | 50 | 1010.1 |
| 20260505054145 | 17 | 87 | 0.0 | 1.6 | 0.00 | 0.00 | 0.00 | 56 | 1009.9 |
| 20260505054139 | 16 | 141 | 0.0 | 3.2 | 0.00 | 0.00 | 0.00 | 57 | 1010.4 |
| 20260505054133 | 18 | 179 | 0.0 | 6.4 | 0.00 | 0.00 | 0.00 | 48 | 1010.1 |
| 20260505054116 | 18 | 160 | 0.0 | 4.8 | 0.00 | 0.00 | 0.00 | 51 | 1010.2 |
| 20260505054100 | 18 | 204 | 0.0 | 4.8 | 0.00 | 0.00 | 0.00 | 51 | 1010.2 |
| 20260505054048 | 18 | 155 | 0.0 | 4.8 | 0.00 | 0.00 | 0.00 | 51 | 1010.2 |
| 20260505054038 | 18 | 167 | 0.0 | 4.8 | 0.00 | 0.00 | 0.00 | 50 | 1010.1 |
| 20260505054022 | 18 | 171 | 1.6 | 4.8 | 0.00 | 0.00 | 0.00 | 50 | 1010.1 |
| 20260505053747 | 18 | 189 | 1.6 | 4.8 | 0.00 | 0.00 | 0.00 | 49 | 1009.9 |
| 20260505053731 | 18 | 172 | 1.6 | 4.8 | 0.00 | 0.00 | 0.00 | 50 | 1010.1 |
| 20260505053449 | 18 | 173 | 0.0 | 3.2 | 0.00 | 0.00 | 0.00 | 50 | 1010.5 |
| 20260505053434 | 18 | 182 | 0.0 | 3.2 | 0.00 | 0.00 | 0.00 | 50 | 1009.9 |
| 20260505053158 | 18 | 171 | 0.0 | 3.2 | 0.00 | 0.00 | 0.00 | 51 | 1010.1 |
| 20260505053131 | 17 | 143 | 0.0 | 1.6 | 0.00 | 0.00 | 0.00 | 53 | 1010.2 |
| 20260505053121 | 17 | 167 | 0.0 | 1.6 | 0.00 | 0.00 | 0.00 | 53 | 1010.5 |
| 20260505053105 | 17 | 161 | 0.0 | 1.6 | 0.00 | 0.00 | 0.00 | 54 | 1010.0 |
| 20260505052828 | 17 | 174 | 0.0 | 1.6 | 0.00 | 0.00 | 0.00 | 54 | 1010.1 |
| 20260505052811 | 17 | 129 | 0.0 | 1.6 | 0.00 | 0.00 | 0.00 | 56 | 1009.9 |
| 20260505052542 | 17 | 147 | 0.0 | 1.6 | 0.00 | 0.00 | 0.00 | 55 | 1010.2 |
| 20260505052525 | 17 | 157 | 0.0 | 1.6 | 0.00 | 0.00 | 0.00 | 55 | 1010.2 |
| 20260505052029 | 17 | 146 | 0.0 | 3.2 | 0.00 | 0.00 | 0.00 | 56 | 1010.1 |
| 20260505052017 | 17 | 156 | 0.0 | 3.2 | 0.00 | 0.00 | 0.00 | 56 | 1010.1 |
| 20260505052006 | 17 | 134 | 0.0 | 3.2 | 0.00 | 0.00 | 0.00 | 56 | 1010.4 |
| 20260505051951 | 17 | 156 | 0.0 | 3.2 | 0.00 | 0.00 | 0.00 | 56 | 1010.2 |
| 20260505051715 | 17 | 147 | 0.0 | 3.2 | 0.00 | 0.00 | 0.00 | 56 | 1010.2 |
| 20260505051659 | 17 | 134 | 0.0 | 3.2 | 0.00 | 0.00 | 0.00 | 55 | 1010.1 |
| 20260505051647 | 17 | 153 | 0.0 | 3.2 | 0.00 | 0.00 | 0.00 | 55 | 1010.1 |
| 20260505051414 | 17 | 134 | 0.0 | 3.2 | 0.00 | 0.00 | 0.00 | 55 | 1010.1 |
| 20260505051358 | 17 | 149 | 0.0 | 3.2 | 0.00 | 0.00 | 0.00 | 55 | 1010.1 |
| 20260505051343 | 17 | 137 | 0.0 | 1.6 | 0.00 | 0.00 | 0.00 | 55 | 1010.2 |
| 20260505051111 | 17 | 157 | 0.0 | 3.2 | 0.00 | 0.00 | 0.00 | 55 | 1010.4 |
| 20260505050839 | 16 | 145 | 0.0 | 3.2 | 0.00 | 0.00 | 0.00 | 55 | 1010.2 |
| 20260505050823 | 16 | 141 | 0.0 | 3.2 | 0.00 | 0.00 | 0.00 | 56 | 1010.5 |
| 20260505050548 | 16 | 161 | 0.0 | 3.2 | 0.00 | 0.00 | 0.00 | 57 | 1010.2 |
| 20260505050319 | 16 | 124 | 0.0 | 3.2 | 0.00 | 0.00 | 0.00 | 57 | 1010.4 |
| 20260505050302 | 16 | 176 | 0.0 | 3.2 | 0.00 | 0.00 | 0.00 | 56 | 1010.2 |
| 20260505041658 | 12 | 166 | 0.0 | 1.6 | 0.00 | 0.00 | 0.00 | 70 | 1010.2 |
| 20260505041559 | 12 | 160 | 0.0 | 1.6 | 0.00 | 0.00 | 0.00 | 70 | 1010.7 |
| 20260505041458 | 12 | 172 | 0.0 | 1.6 | 0.00 | 0.00 | 0.00 | 71 | 1010.7 |
| 20260505041358 | 11 | 179 | 0.0 | 1.6 | 0.00 | 0.00 | 0.00 | 71 | 1010.4 |
| 20260505041255 | 11 | 184 | 0.0 | 1.6 | 0.00 | 0.00 | 0.00 | 72 | 1010.5 |
| 20260505041248 | 11 | 182 | 0.0 | 1.6 | 0.00 | 0.00 | 0.00 | 72 | 1010.5 |
| 20260505041221 | 11 | 165 | 0.0 | 1.6 | 0.00 | 0.00 | 0.00 | 72 | 1010.5 |
| 20260505041205 | 11 | 141 | 1.6 | 1.6 | 0.00 | 0.00 | 0.00 | 74 | 1010.5 |
| 20260505040847 | 11 | 169 | 0.0 | 0.0 | 0.00 | 0.00 | 0.00 | 75 | 1010.4 |
| 20260505040753 | 11 | 173 | 0.0 | 1.6 | 0.00 | 0.00 | 0.00 | 75 | 1010.6 |
| 20260505040745 | 11 | 174 | 0.0 | 1.6 | 0.00 | 0.00 | 0.00 | 75 | 1010.6 |
| 20260505040646 | 11 | 173 | 0.0 | 1.6 | 0.00 | 0.00 | 0.00 | 75 | 1010.4 |
| 20260505040533 | 11 | 172 | 0.0 | 1.6 | 0.00 | 0.00 | 0.00 | 75 | 1010.5 |
| 20260505040434 | 11 | 172 | 0.0 | 1.6 | 0.00 | 0.00 | 0.00 | 75 | 1010.5 |
| 20260505040333 | 11 | 181 | 0.0 | 1.6 | 0.00 | 0.00 | 0.00 | 75 | 1010.7 |
| 20260505040319 | 11 | 179 | 0.0 | 1.6 | 0.00 | 0.00 | 0.00 | 75 | 1010.7 |
| 20260505040309 | 12 | 176 | 0.0 | 1.6 | 0.00 | 0.00 | 0.00 | 74 | 1010.4 |
| 20260505040252 | 12 | 181 | 0.0 | 1.6 | 0.00 | 0.00 | 0.00 | 72 | 1010.7 |
| 20260505035945 | 12 | 171 | 0.0 | 1.6 | 0.00 | 0.00 | 0.00 | 63 | 1010.2 |
| 20260505035940 | 12 | 177 | 0.0 | 1.6 | 0.00 | 0.00 | 0.00 | 70 | 1010.4 |
| 20260505035924 | 12 | 152 | 1.6 | 1.6 | 0.00 | 0.00 | 0.00 | 67 | 1010.6 |
| 20260505035910 | 12 | 183 | 0.0 | 0.0 | 0.00 | 0.00 | 0.00 | 68 | 1010.6 |
| 20260505035903 | 12 | 183 | 0.0 | 0.0 | 0.00 | 0.00 | 0.00 | 67 | 1010.6 |
| 20260505035847 | 12 | 169 | 0.0 | 0.0 | 0.00 | 0.00 | 0.00 | 66 | 1010.4 |
| 20260505035830 | 12 | 177 | 0.0 | 0.0 | 0.00 | 0.00 | 0.00 | 65 | 1010.4 |
| 20260505035555 | 12 | 175 | 0.0 | 0.0 | 0.00 | 0.00 | 0.00 | 63 | 1010.5 |
| 20260505035540 | 12 | 173 | 0.0 | 0.0 | 0.00 | 0.00 | 0.00 | 62 | 1010.5 |
| 20260505035310 | 12 | 167 | 0.0 | 1.6 | 0.00 | 0.00 | 0.00 | 62 | 1010.4 |
| 20260505035254 | 12 | 166 | 0.0 | 1.6 | 0.00 | 0.00 | 0.00 | 62 | 1010.5 |
| 20260505035239 | 12 | 173 | 0.0 | 1.6 | 0.00 | 0.00 | 0.00 | 64 | 1010.5 |
| 20260505035222 | 12 | 171 | 0.0 | 1.6 | 0.00 | 0.00 | 0.00 | 63 | 1010.2 |
| 20260505034954 | 12 | 169 | 0.0 | 1.6 | 0.00 | 0.00 | 0.00 | 63 | 1010.2 |
| 20260505034937 | 12 | 168 | 0.0 | 1.6 | 0.00 | 0.00 | 0.00 | 63 | 1010.6 |
| 20260505034920 | 12 | 166 | 0.0 | 1.6 | 0.00 | 0.00 | 0.00 | 63 | 1010.2 |
| 20260505034905 | 12 | 160 | 0.0 | 1.6 | 0.00 | 0.00 | 0.00 | 63 | 1010.5 |
| 20260505034848 | 12 | 157 | 0.0 | 1.6 | 0.00 | 0.00 | 0.00 | 63 | 1010.6 |
| 20260505034832 | 12 | 151 | 0.0 | 1.6 | 0.00 | 0.00 | 0.00 | 63 | 1010.6 |
| 20260505033817 | 12 | 166 | 0.0 | 3.2 | 0.00 | 0.00 | 0.00 | 64 | 1010.5 |
| 20260505033736 | 12 | 164 | 0.0 | 3.2 | 0.00 | 0.00 | 0.00 | 64 | 1010.5 |
| 20260505033715 | 12 | 164 | 0.0 | 3.2 | 0.00 | 0.00 | 0.00 | 64 | 1010.6 |
| 20260505033701 | 11 | 153 | 0.0 | 3.2 | 0.00 | 0.00 | 0.00 | 67 | 1010.6 |
| 20260505033652 | 11 | 165 | 0.0 | 3.2 | 0.00 | 0.00 | 0.00 | 65 | 1010.2 |
| 20260505033635 | 11 | 166 | 0.0 | 3.2 | 0.00 | 0.00 | 0.00 | 65 | 1010.2 |
| 20260505033618 | 11 | 159 | 0.0 | 3.2 | 0.00 | 0.00 | 0.00 | 66 | 1010.6 |
| 20260505033602 | 11 | 156 | 0.0 | 3.2 | 0.00 | 0.00 | 0.00 | 66 | 1010.6 |
| 20260505033332 | 11 | 156 | 0.0 | 3.2 | 0.00 | 0.00 | 0.00 | 67 | 1010.4 |
| 20260505033030 | 11 | 164 | 0.0 | 1.6 | 0.00 | 0.00 | 0.00 | 71 | 1010.6 |
| 20260505033023 | 11 | 156 | 0.0 | 3.2 | 0.00 | 0.00 | 0.00 | 69 | 1010.2 |
| 20260505033006 | 11 | 133 | 1.6 | 3.2 | 0.00 | 0.00 | 0.00 | 69 | 1010.6 |
| 20260505032951 | 11 | 165 | 0.0 | 1.6 | 0.00 | 0.00 | 0.00 | 71 | 1010.2 |
| 20260505032710 | 11 | 164 | 0.0 | 1.6 | 0.00 | 0.00 | 0.00 | 71 | 1010.6 |
| 20260505032611 | 11 | 157 | 0.0 | 1.6 | 0.00 | 0.00 | 0.00 | 70 | 1010.4 |
| 20260505032550 | 11 | 165 | 0.0 | 0.0 | 0.00 | 0.00 | 0.00 | 72 | 1010.5 |
| 20260505032533 | 11 | 166 | 0.0 | 0.0 | 0.00 | 0.00 | 0.00 | 70 | 1010.6 |
| 20260505032255 | 11 | 166 | 0.0 | 1.6 | 0.00 | 0.00 | 0.00 | 69 | 1010.5 |
| 20260505032245 | 11 | 165 | 0.0 | 1.6 | 0.00 | 0.00 | 0.00 | 69 | 1010.5 |
| 20260505032230 | 11 | 166 | 0.0 | 1.6 | 0.00 | 0.00 | 0.00 | 66 | 1010.5 |
| 20260505031910 | 11 | 162 | 0.0 | 1.6 | 0.00 | 0.00 | 0.00 | 67 | 1010.4 |
| 20260505031811 | 11 | 167 | 0.0 | 1.6 | 0.00 | 0.00 | 0.00 | 65 | 1010.6 |
| 20260505031730 | 11 | 167 | 0.0 | 1.6 | 0.00 | 0.00 | 0.00 | 65 | 1010.5 |
| 20260505031704 | 11 | 167 | 0.0 | 1.6 | 0.00 | 0.00 | 0.00 | 65 | 1010.5 |
| 20260505031559 | 11 | 169 | 0.0 | 1.6 | 0.00 | 0.00 | 0.00 | 67 | 1010.6 |
| 20260505031458 | 11 | 167 | 0.0 | 1.6 | 0.00 | 0.00 | 0.00 | 65 | 1010.5 |
| 20260505031358 | 11 | 170 | 0.0 | 1.6 | 0.00 | 0.00 | 0.00 | 67 | 1010.4 |
| 20260505031259 | 12 | 169 | 0.0 | 1.6 | 0.00 | 0.00 | 0.00 | 65 | 1010.6 |
| 20260505031230 | 12 | 172 | 0.0 | 1.6 | 0.00 | 0.00 | 0.00 | 66 | 1010.6 |
| 20260505031158 | 12 | 174 | 0.0 | 1.6 | 0.00 | 0.00 | 0.00 | 68 | 1010.6 |
| 20260505031058 | 12 | 174 | 0.0 | 1.6 | 0.00 | 0.00 | 0.00 | 64 | 1010.5 |
| 20260505030959 | 12 | 174 | 0.0 | 1.6 | 0.00 | 0.00 | 0.00 | 66 | 1010.6 |
| 20260505030858 | 11 | 173 | 0.0 | 1.6 | 0.00 | 0.00 | 0.00 | 65 | 1010.7 |
| 20260505030822 | 12 | 170 | 0.0 | 1.6 | 0.00 | 0.00 | 0.00 | 67 | 1010.5 |
| 20260505030815 | 11 | 167 | 0.0 | 1.6 | 0.00 | 0.00 | 0.00 | 65 | 1010.7 |
| 20260505030801 | 11 | 155 | 0.0 | 1.6 | 0.00 | 0.00 | 0.00 | 66 | 1010.4 |
| 20260505030751 | 11 | 169 | 0.0 | 1.6 | 0.00 | 0.00 | 0.00 | 69 | 1010.4 |
| 20260505030735 | 11 | 141 | 1.6 | 1.6 | 0.00 | 0.00 | 0.00 | 65 | 1010.6 |
| 20260505030719 | 12 | 174 | 0.0 | 1.6 | 0.00 | 0.00 | 0.00 | 68 | 1010.7 |
| 20260505030702 | 12 | 171 | 0.0 | 1.6 | 0.00 | 0.00 | 0.00 | 66 | 1010.8 |
| 20260505030152 | 12 | 169 | 0.0 | 1.6 | 0.00 | 0.00 | 0.00 | 65 | 1010.5 |
| 20260505030053 | 12 | 166 | 0.0 | 1.6 | 0.00 | 0.00 | 0.00 | 62 | 1010.7 |
| 20260505030016 | 13 | 174 | 0.0 | 1.6 | 0.00 | 0.00 | 0.00 | 61 | 1010.6 |
| 20260505030009 | 12 | 168 | 0.0 | 1.6 | 0.00 | 0.00 | 0.00 | 63 | 1010.6 |
| 20260505025953 | 12 | 158 | 0.0 | 1.6 | 0.00 | 0.00 | 0.00 | 60 | 1010.7 |
| 20260505025937 | 13 | 174 | 0.0 | 1.6 | 0.00 | 0.00 | 0.00 | 61 | 1010.7 |
| 20260505025647 | 13 | 174 | 0.0 | 1.6 | 0.00 | 0.00 | 0.00 | 61 | 1010.6 |
| 20260505025548 | 13 | 175 | 0.0 | 1.6 | 0.00 | 0.00 | 0.00 | 59 | 1010.7 |
| 20260505025447 | 13 | 174 | 0.0 | 1.6 | 0.00 | 0.00 | 0.00 | 58 | 1010.8 |
| 20260505025347 | 13 | 174 | 0.0 | 1.6 | 0.00 | 0.00 | 0.00 | 58 | 1010.7 |
| 20260505025310 | 13 | 174 | 0.0 | 1.6 | 0.00 | 0.00 | 0.00 | 58 | 1010.9 |
| 20260505025258 | 13 | 174 | 0.0 | 1.6 | 0.00 | 0.00 | 0.00 | 57 | 1010.7 |
| 20260505025246 | 13 | 174 | 0.0 | 1.6 | 0.00 | 0.00 | 0.00 | 58 | 1010.7 |
| 20260505025229 | 13 | 169 | 0.0 | 1.6 | 0.00 | 0.00 | 0.00 | 57 | 1010.7 |
| 20260505025214 | 13 | 170 | 0.0 | 1.6 | 0.00 | 0.00 | 0.00 | 57 | 1010.6 |
| 20260505025158 | 13 | 171 | 0.0 | 1.6 | 0.00 | 0.00 | 0.00 | 57 | 1010.7 |
| 20260505025143 | 13 | 176 | 0.0 | 0.0 | 0.00 | 0.00 | 0.00 | 58 | 1010.9 |
| 20260505025130 | 13 | 176 | 0.0 | 0.0 | 0.00 | 0.00 | 0.00 | 58 | 1010.8 |
| 20260505024900 | 13 | 175 | 0.0 | 0.0 | 0.00 | 0.00 | 0.00 | 57 | 1010.9 |
| 20260505024623 | 13 | 169 | 0.0 | 1.6 | 0.00 | 0.00 | 0.00 | 57 | 1010.8 |
| 20260505024350 | 13 | 171 | 0.0 | 1.6 | 0.00 | 0.00 | 0.00 | 57 | 1010.8 |
| 20260505024033 | 13 | 173 | 0.0 | 1.6 | 0.00 | 0.00 | 0.00 | 57 | 1010.9 |
| 20260505024003 | 13 | 171 | 0.0 | 1.6 | 0.00 | 0.00 | 0.00 | 57 | 1010.8 |
| 20260505023948 | 13 | 172 | 0.0 | 1.6 | 0.00 | 0.00 | 0.00 | 58 | 1010.9 |
| 20260505023712 | 13 | 170 | 0.0 | 1.6 | 0.00 | 0.00 | 0.00 | 57 | 1010.8 |
| 20260505023628 | 13 | 167 | 0.0 | 1.6 | 0.00 | 0.00 | 0.00 | 58 | 1010.9 |
| 20260505023527 | 13 | 165 | 0.0 | 1.6 | 0.00 | 0.00 | 0.00 | 57 | 1010.9 |
| 20260505023423 | 13 | 173 | 0.0 | 0.0 | 0.00 | 0.00 | 0.00 | 60 | 1011.1 |
| 20260505023322 | 13 | 172 | 0.0 | 0.0 | 0.00 | 0.00 | 0.00 | 57 | 1010.8 |
| 20260505023216 | 13 | 172 | 0.0 | 0.0 | 0.00 | 0.00 | 0.00 | 56 | 1010.8 |
| 20260505023201 | 13 | 172 | 0.0 | 0.0 | 0.00 | 0.00 | 0.00 | 56 | 1010.8 |
| 20260505023115 | 13 | 176 | 0.0 | 1.6 | 0.00 | 0.00 | 0.00 | 57 | 1010.9 |
| 20260505023016 | 13 | 176 | 0.0 | 1.6 | 0.00 | 0.00 | 0.00 | 57 | 1011.0 |
| 20260505022916 | 13 | 175 | 0.0 | 1.6 | 0.00 | 0.00 | 0.00 | 56 | 1011.0 |
| 20260505022818 | 13 | 176 | 0.0 | 1.6 | 0.00 | 0.00 | 0.00 | 57 | 1011.0 |
| 20260505022716 | 13 | 175 | 0.0 | 1.6 | 0.00 | 0.00 | 0.00 | 57 | 1011.0 |
| 20260505022700 | 13 | 175 | 0.0 | 1.6 | 0.00 | 0.00 | 0.00 | 57 | 1011.0 |
| 20260505022615 | 13 | 176 | 0.0 | 1.6 | 0.00 | 0.00 | 0.00 | 59 | 1010.9 |
| 20260505022538 | 13 | 176 | 0.0 | 1.6 | 0.00 | 0.00 | 0.00 | 56 | 1010.9 |
| 20260505022522 | 13 | 175 | 0.0 | 1.6 | 0.00 | 0.00 | 0.00 | 57 | 1010.8 |
| 20260505022234 | 13 | 162 | 0.0 | 1.6 | 0.00 | 0.00 | 0.00 | 56 | 1010.7 |
| 20260505022215 | 13 | 178 | 0.0 | 0.0 | 0.00 | 0.00 | 0.00 | 56 | 1010.9 |
| 20260505022159 | 14 | 178 | 0.0 | 0.0 | 0.00 | 0.00 | 0.00 | 56 | 1011.0 |
| 20260505022144 | 14 | 177 | 0.0 | 0.0 | 0.00 | 0.00 | 0.00 | 56 | 1011.1 |
| 20260505021658 | 14 | 177 | 0.0 | 0.0 | 0.00 | 0.00 | 0.00 | 55 | 1010.9 |
| 20260505021558 | 14 | 177 | 0.0 | 0.0 | 0.00 | 0.00 | 0.00 | 55 | 1011.0 |
| 20260505021458 | 14 | 176 | 0.0 | 0.0 | 0.00 | 0.00 | 0.00 | 55 | 1010.9 |
| 20260505021343 | 14 | 178 | 0.0 | 0.0 | 0.00 | 0.00 | 0.00 | 55 | 1010.9 |
| 20260505021240 | 14 | 176 | 0.0 | 0.0 | 0.00 | 0.00 | 0.00 | 55 | 1010.8 |
| 20260505021142 | 13 | 175 | 0.0 | 0.0 | 0.00 | 0.00 | 0.00 | 55 | 1010.9 |
| 20260505021116 | 13 | 178 | 0.0 | 0.0 | 0.00 | 0.00 | 0.00 | 55 | 1010.9 |
| 20260505021101 | 13 | 179 | 0.0 | 0.0 | 0.00 | 0.00 | 0.00 | 56 | 1010.9 |
| 20260505020740 | 14 | 180 | 0.0 | 0.0 | 0.00 | 0.00 | 0.00 | 56 | 1010.9 |
| 20260505020648 | 14 | 181 | 0.0 | 0.0 | 0.00 | 0.00 | 0.00 | 57 | 1011.1 |
| 20260505020641 | 14 | 181 | 0.0 | 0.0 | 0.00 | 0.00 | 0.00 | 55 | 1011.1 |
| 20260505020540 | 14 | 181 | 0.0 | 0.0 | 0.00 | 0.00 | 0.00 | 55 | 1011.2 |
| 20260505020511 | 14 | 181 | 0.0 | 0.0 | 0.00 | 0.00 | 0.00 | 57 | 1010.9 |
| 20260505020455 | 13 | 181 | 0.0 | 0.0 | 0.00 | 0.00 | 0.00 | 55 | 1010.9 |
| 20260505020143 | 13 | 181 | 0.0 | 1.6 | 0.00 | 0.00 | 0.00 | 55 | 1011.1 |
| 20260505020135 | 13 | 180 | 0.0 | 1.6 | 0.00 | 0.00 | 0.00 | 55 | 1011.1 |
| 20260505020035 | 13 | 179 | 0.0 | 1.6 | 0.00 | 0.00 | 0.00 | 56 | 1011.1 |
| 20260505015935 | 13 | 179 | 0.0 | 1.6 | 0.00 | 0.00 | 0.00 | 56 | 1011.0 |
| 20260505015836 | 13 | 180 | 0.0 | 1.6 | 0.00 | 0.00 | 0.00 | 61 | 1010.9 |
| 20260505015817 | 13 | 178 | 0.0 | 1.6 | 0.00 | 0.00 | 0.00 | 57 | 1011.3 |
| 20260505015759 | 13 | 182 | 0.0 | 1.6 | 0.00 | 0.00 | 0.00 | 59 | 1011.3 |
| 20260505015754 | 13 | 181 | 0.0 | 1.6 | 0.00 | 0.00 | 0.00 | 59 | 1011.2 |
| 20260505015429 | 13 | 180 | 0.0 | 1.6 | 0.00 | 0.00 | 0.00 | 57 | 1011.2 |
| 20260505015327 | 13 | 175 | 0.0 | 1.6 | 0.00 | 0.00 | 0.00 | 57 | 1011.3 |
| 20260505015229 | 14 | 185 | 0.0 | 0.0 | 0.00 | 0.00 | 0.00 | 60 | 1011.2 |
| 20260505015212 | 14 | 182 | 0.0 | 0.0 | 0.00 | 0.00 | 0.00 | 57 | 1011.2 |
| 20260505015202 | 14 | 182 | 0.0 | 0.0 | 0.00 | 0.00 | 0.00 | 61 | 1010.9 |
| 20260505015147 | 14 | 188 | 0.0 | 0.0 | 0.00 | 0.00 | 0.00 | 56 | 1011.2 |
| 20260505014906 | 14 | 173 | 0.0 | 0.0 | 0.00 | 0.00 | 0.00 | 58 | 1011.3 |
| 20260505014850 | 14 | 173 | 0.0 | 0.0 | 0.00 | 0.00 | 0.00 | 55 | 1011.1 |
| 20260505014834 | 14 | 173 | 0.0 | 0.0 | 0.00 | 0.00 | 0.00 | 54 | 1011.1 |
| 20260505014523 | 14 | 173 | 0.0 | 0.0 | 0.00 | 0.00 | 0.00 | 54 | 1011.1 |
| 20260505014459 | 14 | 173 | 0.0 | 0.0 | 0.00 | 0.00 | 0.00 | 54 | 1011.4 |
| 20260505014444 | 14 | 173 | 0.0 | 0.0 | 0.00 | 0.00 | 0.00 | 57 | 1011.1 |
| 20260505014206 | 14 | 171 | 0.0 | 0.0 | 0.00 | 0.00 | 0.00 | 54 | 1011.5 |
| 20260505014158 | 14 | 171 | 0.0 | 0.0 | 0.00 | 0.00 | 0.00 | 54 | 1011.4 |
| 20260505014142 | 14 | 174 | 0.0 | 0.0 | 0.00 | 0.00 | 0.00 | 54 | 1011.1 |
| 20260505013821 | 14 | 174 | 0.0 | 0.0 | 0.00 | 0.00 | 0.00 | 54 | 1011.1 |
| 20260505013720 | 14 | 173 | 0.0 | 0.0 | 0.00 | 0.00 | 0.00 | 54 | 1011.3 |
| 20260505013629 | 14 | 173 | 0.0 | 0.0 | 0.00 | 0.00 | 0.00 | 55 | 1011.1 |
| 20260505013621 | 14 | 173 | 0.0 | 0.0 | 0.00 | 0.00 | 0.00 | 54 | 1011.1 |
| 20260505013516 | 14 | 173 | 0.0 | 0.0 | 0.00 | 0.00 | 0.00 | 54 | 1011.3 |
| 20260505013423 | 14 | 173 | 0.0 | 0.0 | 0.00 | 0.00 | 0.00 | 54 | 1011.1 |
| 20260505013417 | 14 | 173 | 0.0 | 0.0 | 0.00 | 0.00 | 0.00 | 54 | 1011.3 |
| 20260505013402 | 14 | 173 | 0.0 | 0.0 | 0.00 | 0.00 | 0.00 | 54 | 1011.1 |
| 20260505013346 | 14 | 173 | 0.0 | 0.0 | 0.00 | 0.00 | 0.00 | 54 | 1011.1 |
| 20260505013118 | 14 | 173 | 0.0 | 0.0 | 0.00 | 0.00 | 0.00 | 54 | 1011.1 |
| 20260505013017 | 14 | 173 | 0.0 | 0.0 | 0.00 | 0.00 | 0.00 | 54 | 1011.2 |
| 20260505012915 | 14 | 172 | 0.0 | 0.0 | 0.00 | 0.00 | 0.00 | 54 | 1011.3 |
| 20260505012816 | 14 | 172 | 0.0 | 0.0 | 0.00 | 0.00 | 0.00 | 54 | 1011.2 |
| 20260505012657 | 14 | 172 | 0.0 | 0.0 | 0.00 | 0.00 | 0.00 | 54 | 1011.3 |
| 20260505012614 | 14 | 171 | 0.0 | 0.0 | 0.00 | 0.00 | 0.00 | 54 | 1011.2 |
| 20260505012546 | 14 | 172 | 0.0 | 0.0 | 0.00 | 0.00 | 0.00 | 54 | 1011.2 |
| 20260505012446 | 14 | 171 | 0.0 | 0.0 | 0.00 | 0.00 | 0.00 | 54 | 1011.2 |
| 20260505012346 | 15 | 171 | 0.0 | 0.0 | 0.00 | 0.00 | 0.00 | 54 | 1011.1 |
| 20260505012312 | 15 | 173 | 0.0 | 0.0 | 0.00 | 0.00 | 0.00 | 54 | 1011.1 |
| 20260505012243 | 15 | 171 | 0.0 | 0.0 | 0.00 | 0.00 | 0.00 | 54 | 1011.3 |
| 20260505011927 | 15 | 171 | 0.0 | 0.0 | 0.00 | 0.00 | 0.00 | 54 | 1011.2 |
| 20260505011829 | 15 | 174 | 0.0 | 0.0 | 0.00 | 0.00 | 0.00 | 54 | 1011.3 |
| 20260505011716 | 15 | 174 | 0.0 | 0.0 | 0.00 | 0.00 | 0.00 | 54 | 1011.1 |
| 20260505011616 | 15 | 178 | 0.0 | 0.0 | 0.00 | 0.00 | 0.00 | 54 | 1011.2 |
| 20260505011601 | 15 | 178 | 0.0 | 0.0 | 0.00 | 0.00 | 0.00 | 54 | 1011.2 |
| 20260505011532 | 15 | 172 | 0.0 | 0.0 | 0.00 | 0.00 | 0.00 | 54 | 1011.2 |
| 20260505011525 | 15 | 178 | 0.0 | 0.0 | 0.00 | 0.00 | 0.00 | 54 | 1011.2 |
| 20260505011509 | 15 | 174 | 0.0 | 0.0 | 0.00 | 0.00 | 0.00 | 54 | 1011.2 |
| 20260505011452 | 15 | 174 | 0.0 | 0.0 | 0.00 | 0.00 | 0.00 | 54 | 1011.2 |
| 20260505011437 | 15 | 174 | 0.0 | 0.0 | 0.00 | 0.00 | 0.00 | 54 | 1011.2 |
| 20260505011421 | 15 | 172 | 0.0 | 0.0 | 0.00 | 0.00 | 0.00 | 54 | 1011.2 |
| 20260505011153 | 15 | 176 | 0.0 | 0.0 | 0.00 | 0.00 | 0.00 | 54 | 1011.2 |
| 20260505010923 | 15 | 179 | 0.0 | 0.0 | 0.00 | 0.00 | 0.00 | 54 | 1011.2 |
| 20260505010604 | 15 | 178 | 0.0 | 0.0 | 0.00 | 0.00 | 0.00 | 53 | 1011.1 |
| 20260505010505 | 15 | 176 | 0.0 | 0.0 | 0.00 | 0.00 | 0.00 | 54 | 1011.3 |
| 20260505010403 | 15 | 175 | 0.0 | 0.0 | 0.00 | 0.00 | 0.00 | 54 | 1011.1 |
| 20260505010303 | 15 | 178 | 0.0 | 0.0 | 0.00 | 0.00 | 0.00 | 54 | 1011.3 |
| 20260505010159 | 15 | 176 | 0.0 | 0.0 | 0.00 | 0.00 | 0.00 | 54 | 1011.4 |
| 20260505010113 | 15 | 176 | 0.0 | 0.0 | 0.00 | 0.00 | 0.00 | 54 | 1011.4 |
| 20260505005959 | 15 | 176 | 0.0 | 0.0 | 0.00 | 0.00 | 0.00 | 54 | 1011.3 |
| 20260505005859 | 15 | 174 | 0.0 | 0.0 | 0.00 | 0.00 | 0.00 | 54 | 1011.3 |
| 20260505005758 | 15 | 172 | 0.0 | 0.0 | 0.00 | 0.00 | 0.00 | 54 | 1011.1 |
| 20260505005700 | 15 | 172 | 0.0 | 0.0 | 0.00 | 0.00 | 0.00 | 54 | 1011.3 |
| 20260505005641 | 15 | 172 | 0.0 | 0.0 | 0.00 | 0.00 | 0.00 | 54 | 1011.3 |
| 20260505005625 | 15 | 171 | 0.0 | 0.0 | 0.00 | 0.00 | 0.00 | 54 | 1011.2 |
| 20260505005610 | 15 | 170 | 0.0 | 0.0 | 0.00 | 0.00 | 0.00 | 54 | 1011.2 |
| 20260505005553 | 15 | 171 | 0.0 | 0.0 | 0.00 | 0.00 | 0.00 | 54 | 1011.3 |
| 20260505005539 | 15 | 173 | 0.0 | 0.0 | 0.00 | 0.00 | 0.00 | 54 | 1011.2 |
| 20260505005523 | 15 | 173 | 0.0 | 0.0 | 0.00 | 0.00 | 0.00 | 54 | 1011.3 |
| 20260505004734 | 15 | 172 | 0.0 | 0.0 | 0.00 | 0.00 | 0.00 | 54 | 1011.4 |
| 20260505004635 | 15 | 172 | 0.0 | 0.0 | 0.00 | 0.00 | 0.00 | 54 | 1011.4 |
| 20260505004534 | 15 | 172 | 0.0 | 0.0 | 0.00 | 0.00 | 0.00 | 54 | 1011.4 |
| 20260505004434 | 15 | 172 | 0.0 | 0.0 | 0.00 | 0.00 | 0.00 | 54 | 1011.3 |
| 20260505004333 | 15 | 171 | 0.0 | 0.0 | 0.00 | 0.00 | 0.00 | 54 | 1011.5 |
| 20260505004256 | 15 | 174 | 0.0 | 1.6 | 0.00 | 0.00 | 0.00 | 53 | 1011.2 |
| 20260505004243 | 15 | 173 | 0.0 | 0.0 | 0.00 | 0.00 | 0.00 | 54 | 1011.4 |
| 20260505004228 | 15 | 174 | 0.0 | 0.0 | 0.00 | 0.00 | 0.00 | 54 | 1011.5 |
| 20260505004212 | 15 | 174 | 0.0 | 0.0 | 0.00 | 0.00 | 0.00 | 54 | 1011.5 |
| 20260505003936 | 15 | 174 | 0.0 | 0.0 | 0.00 | 0.00 | 0.00 | 53 | 1011.6 |
| 20260505003914 | 15 | 174 | 0.0 | 0.0 | 0.00 | 0.00 | 0.00 | 53 | 1011.3 |
| 20260505003648 | 15 | 175 | 0.0 | 0.0 | 0.00 | 0.00 | 0.00 | 53 | 1011.5 |
| 20260505003631 | 15 | 174 | 0.0 | 0.0 | 0.00 | 0.00 | 0.00 | 53 | 1011.4 |
| 20260505003615 | 15 | 174 | 0.0 | 0.0 | 0.00 | 0.00 | 0.00 | 53 | 1011.5 |
| 20260505003558 | 15 | 174 | 0.0 | 1.6 | 0.00 | 0.00 | 0.00 | 53 | 1011.3 |
| 20260505003331 | 15 | 174 | 0.0 | 1.6 | 0.00 | 0.00 | 0.00 | 53 | 1011.2 |
| 20260505003011 | 15 | 174 | 0.0 | 1.6 | 0.00 | 0.00 | 0.00 | 53 | 1011.5 |
| 20260505002911 | 15 | 175 | 0.0 | 1.6 | 0.00 | 0.00 | 0.00 | 53 | 1011.4 |
| 20260505002810 | 15 | 174 | 0.0 | 1.6 | 0.00 | 0.00 | 0.00 | 53 | 1011.3 |
| 20260505002719 | 15 | 176 | 0.0 | 1.6 | 0.00 | 0.00 | 0.00 | 53 | 1011.4 |
| 20260505002710 | 15 | 177 | 0.0 | 1.6 | 0.00 | 0.00 | 0.00 | 53 | 1011.4 |
| 20260505002610 | 15 | 173 | 0.0 | 1.6 | 0.00 | 0.00 | 0.00 | 53 | 1011.2 |
| 20260505002510 | 15 | 176 | 0.0 | 1.6 | 0.00 | 0.00 | 0.00 | 53 | 1011.5 |
| 20260505002413 | 15 | 170 | 0.0 | 1.6 | 0.00 | 0.00 | 0.00 | 53 | 1011.5 |
| 20260505002354 | 15 | 170 | 0.0 | 1.6 | 0.00 | 0.00 | 0.00 | 53 | 1011.5 |
| 20260505002331 | 15 | 166 | 0.0 | 1.6 | 0.00 | 0.00 | 0.00 | 53 | 1011.3 |
| 20260505002011 | 15 | 169 | 0.0 | 1.6 | 0.00 | 0.00 | 0.00 | 53 | 1011.4 |
| 20260505001910 | 15 | 164 | 0.0 | 1.6 | 0.00 | 0.00 | 0.00 | 53 | 1011.2 |
| 20260505001807 | 15 | 167 | 0.0 | 1.6 | 0.00 | 0.00 | 0.00 | 53 | 1011.7 |
| 20260505001715 | 15 | 163 | 0.0 | 1.6 | 0.00 | 0.00 | 0.00 | 53 | 1011.5 |
| 20260505001705 | 15 | 169 | 0.0 | 1.6 | 0.00 | 0.00 | 0.00 | 53 | 1011.5 |
| 20260505001606 | 15 | 168 | 0.0 | 1.6 | 0.00 | 0.00 | 0.00 | 53 | 1011.6 |
| 20260505001527 | 15 | 169 | 0.0 | 1.6 | 0.00 | 0.00 | 0.00 | 53 | 1011.6 |
| 20260505001519 | 15 | 165 | 0.0 | 0.0 | 0.00 | 0.00 | 0.00 | 53 | 1011.5 |
| 20260505001503 | 15 | 169 | 0.0 | 0.0 | 0.00 | 0.00 | 0.00 | 53 | 1011.6 |
| 20260505001445 | 15 | 168 | 0.0 | 0.0 | 0.00 | 0.00 | 0.00 | 53 | 1011.6 |
| 20260505001431 | 15 | 161 | 0.0 | 0.0 | 0.00 | 0.00 | 0.00 | 53 | 1011.6 |
| 20260505001421 | 15 | 164 | 0.0 | 0.0 | 0.00 | 0.00 | 0.00 | 53 | 1011.6 |
| 20260505001406 | 15 | 162 | 0.0 | 1.6 | 0.00 | 0.00 | 0.00 | 53 | 1011.6 |
| 20260505001350 | 15 | 169 | 0.0 | 1.6 | 0.00 | 0.00 | 0.00 | 53 | 1011.6 |
| 20260505001335 | 15 | 172 | 0.0 | 1.6 | 0.00 | 0.00 | 0.00 | 53 | 1011.7 |
| 20260505001318 | 15 | 170 | 0.0 | 1.6 | 0.00 | 0.00 | 0.00 | 53 | 1011.7 |
| 20260505001304 | 15 | 169 | 0.0 | 1.6 | 0.00 | 0.00 | 0.00 | 53 | 1011.6 |
| 20260505001255 | 15 | 165 | 0.0 | 1.6 | 0.00 | 0.00 | 0.00 | 53 | 1011.6 |
| 20260505000758 | 15 | 167 | 0.0 | 1.6 | 0.00 | 0.00 | 0.00 | 53 | 1011.6 |
| 20260505000308 | 15 | 167 | 0.0 | 1.6 | 0.00 | 0.00 | 0.00 | 52 | 1011.8 |
| 20260505000032 | 15 | 174 | 0.0 | 0.0 | 0.00 | 0.00 | 0.00 | 53 | 1011.7 |
| 20260505000013 | 15 | 175 | 0.0 | 0.0 | 0.00 | 0.00 | 0.00 | 53 | 1011.7 |
| 20260504235950 | 15 | 175 | 0.0 | 0.0 | 0.00 | 0.00 | 0.00 | 53 | 1011.6 |
| 20260504235436 | 15 | 175 | 0.0 | 0.0 | 0.00 | 0.00 | 0.00 | 53 | 1011.6 |
| 20260504235158 | 15 | 174 | 0.0 | 0.0 | 0.00 | 0.00 | 0.00 | 53 | 1011.7 |
| 20260504235054 | 15 | 170 | 0.0 | 1.6 | 0.00 | 0.00 | 0.00 | 52 | 1012.1 |
| 20260504235050 | 16 | 192 | 0.0 | 0.0 | 0.00 | 0.00 | 0.00 | 52 | 1011.8 |
| 20260504235042 | 15 | 168 | 0.0 | 0.0 | 0.00 | 0.00 | 0.00 | 52 | 1011.8 |
| 20260504234808 | 15 | 168 | 0.0 | 1.6 | 0.00 | 0.00 | 0.00 | 52 | 1011.8 |
| 20260504234753 | 15 | 179 | 0.0 | 1.6 | 0.00 | 0.00 | 0.00 | 52 | 1011.9 |
| 20260504234525 | 15 | 170 | 0.0 | 1.6 | 0.00 | 0.00 | 0.00 | 52 | 1012.1 |
| 20260504234506 | 15 | 167 | 0.0 | 1.6 | 0.00 | 0.00 | 0.00 | 52 | 1012.0 |
| 20260504234449 | 15 | 167 | 0.0 | 1.6 | 0.00 | 0.00 | 0.00 | 52 | 1011.9 |
| 20260504234433 | 15 | 174 | 0.0 | 1.6 | 0.00 | 0.00 | 0.00 | 52 | 1011.8 |
| 20260504234418 | 15 | 168 | 0.0 | 1.6 | 0.00 | 0.00 | 0.00 | 51 | 1012.0 |
| 20260504234354 | 15 | 169 | 0.0 | 1.6 | 0.00 | 0.00 | 0.00 | 51 | 1011.7 |
| 20260504234339 | 15 | 168 | 0.0 | 1.6 | 0.00 | 0.00 | 0.00 | 51 | 1011.9 |
| 20260504233625 | 15 | 187 | 0.0 | 0.0 | 0.00 | 0.00 | 0.00 | 50 | 1011.9 |
| 20260504233354 | 15 | 185 | 0.0 | 0.0 | 0.00 | 0.00 | 0.00 | 53 | 1011.9 |
| 20260504233338 | 15 | 192 | 0.0 | 0.0 | 0.00 | 0.00 | 0.00 | 50 | 1011.8 |
| 20260504233323 | 16 | 192 | 0.0 | 0.0 | 0.00 | 0.00 | 0.00 | 52 | 1012.2 |
| 20260504233306 | 16 | 192 | 0.0 | 0.0 | 0.00 | 0.00 | 0.00 | 50 | 1011.8 |
| 20260504232734 | 16 | 192 | 0.0 | 1.6 | 0.00 | 0.00 | 0.00 | 50 | 1011.9 |
| 20260504232634 | 16 | 192 | 0.0 | 1.6 | 0.00 | 0.00 | 0.00 | 50 | 1011.7 |
| 20260504232533 | 16 | 196 | 0.0 | 1.6 | 0.00 | 0.00 | 0.00 | 50 | 1011.9 |
| 20260504232439 | 16 | 198 | 0.0 | 1.6 | 0.00 | 0.00 | 0.00 | 50 | 1012.0 |
| 20260504232425 | 16 | 201 | 0.0 | 1.6 | 0.00 | 0.00 | 0.00 | 50 | 1012.0 |
| 20260504232417 | 16 | 225 | 0.0 | 1.6 | 0.00 | 0.00 | 0.00 | 50 | 1011.9 |
| 20260504232358 | 16 | 225 | 0.0 | 1.6 | 0.00 | 0.00 | 0.00 | 50 | 1011.8 |
| 20260504232122 | 16 | 196 | 0.0 | 1.6 | 0.00 | 0.00 | 0.00 | 49 | 1012.0 |
| 20260504232107 | 16 | 201 | 0.0 | 1.6 | 0.00 | 0.00 | 0.00 | 49 | 1011.8 |
| 20260504232052 | 16 | 212 | 1.6 | 1.6 | 0.00 | 0.00 | 0.00 | 49 | 1011.8 |
| 20260504231736 | 16 | 198 | 0.0 | 1.6 | 0.00 | 0.00 | 0.00 | 49 | 1012.0 |
| 20260504231633 | 16 | 198 | 0.0 | 1.6 | 0.00 | 0.00 | 0.00 | 49 | 1011.8 |
| 20260504231534 | 16 | 203 | 0.0 | 1.6 | 0.00 | 0.00 | 0.00 | 48 | 1011.8 |
| 20260504231434 | 16 | 209 | 1.6 | 1.6 | 0.00 | 0.00 | 0.00 | 48 | 1011.9 |
| 20260504231329 | 16 | 202 | 0.0 | 4.8 | 0.00 | 0.00 | 0.00 | 48 | 1011.9 |
| 20260504231231 | 16 | 199 | 0.0 | 4.8 | 0.00 | 0.00 | 0.00 | 48 | 1011.9 |
| 20260504231129 | 16 | 205 | 1.6 | 4.8 | 0.00 | 0.00 | 0.00 | 48 | 1011.9 |
| 20260504231113 | 16 | 198 | 0.0 | 4.8 | 0.00 | 0.00 | 0.00 | 49 | 1012.2 |
| 20260504231056 | 16 | 200 | 0.0 | 4.8 | 0.00 | 0.00 | 0.00 | 48 | 1011.9 |
| 20260504231042 | 16 | 202 | 0.0 | 4.8 | 0.00 | 0.00 | 0.00 | 48 | 1011.9 |
| 20260504230730 | 16 | 206 | 0.0 | 4.8 | 0.00 | 0.00 | 0.00 | 48 | 1012.1 |
| 20260504230628 | 16 | 212 | 1.6 | 4.8 | 0.00 | 0.00 | 0.00 | 48 | 1012.0 |
| 20260504230608 | 16 | 201 | 0.0 | 4.8 | 0.00 | 0.00 | 0.00 | 48 | 1012.0 |
| 20260504230552 | 16 | 222 | 3.2 | 6.4 | 0.00 | 0.00 | 0.00 | 47 | 1012.1 |
| 20260504230538 | 16 | 205 | 0.0 | 6.4 | 0.00 | 0.00 | 0.00 | 47 | 1012.1 |
| 20260504230224 | 16 | 206 | 0.0 | 6.4 | 0.00 | 0.00 | 0.00 | 47 | 1011.9 |
| 20260504230125 | 17 | 203 | 0.0 | 6.4 | 0.00 | 0.00 | 0.00 | 48 | 1012.0 |
| 20260504230024 | 17 | 208 | 0.0 | 6.4 | 0.00 | 0.00 | 0.00 | 47 | 1012.3 |
| 20260504230007 | 17 | 205 | 1.6 | 6.4 | 0.00 | 0.00 | 0.00 | 47 | 1012.0 |
| 20260504225952 | 17 | 198 | 0.0 | 6.4 | 0.00 | 0.00 | 0.00 | 47 | 1012.0 |
| 20260504225944 | 17 | 207 | 0.0 | 6.4 | 0.00 | 0.00 | 0.00 | 47 | 1012.0 |
| 20260504225624 | 17 | 199 | 0.0 | 6.4 | 0.00 | 0.00 | 0.00 | 47 | 1012.1 |
| 20260504225525 | 17 | 206 | 1.6 | 6.4 | 0.00 | 0.00 | 0.00 | 46 | 1012.2 |
| 20260504225508 | 17 | 208 | 1.6 | 4.8 | 0.00 | 0.00 | 0.00 | 46 | 1012.1 |
| 20260504225454 | 17 | 205 | 0.0 | 4.8 | 0.00 | 0.00 | 0.00 | 47 | 1012.1 |
| 20260504225445 | 17 | 206 | 1.6 | 4.8 | 0.00 | 0.00 | 0.00 | 46 | 1012.0 |
| 20260504225125 | 17 | 210 | 0.0 | 4.8 | 0.00 | 0.00 | 0.00 | 46 | 1012.2 |
| 20260504225024 | 17 | 205 | 0.0 | 4.8 | 0.00 | 0.00 | 0.00 | 47 | 1012.2 |
| 20260504224925 | 17 | 213 | 1.6 | 4.8 | 0.00 | 0.00 | 0.00 | 46 | 1012.2 |
| 20260504224911 | 17 | 208 | 0.0 | 4.8 | 0.00 | 0.00 | 0.00 | 46 | 1012.2 |
| 20260504224903 | 17 | 206 | 0.0 | 4.8 | 0.00 | 0.00 | 0.00 | 47 | 1012.3 |
| 20260504224846 | 17 | 201 | 0.0 | 4.8 | 0.00 | 0.00 | 0.00 | 47 | 1012.5 |
| 20260504224525 | 17 | 198 | 0.0 | 4.8 | 0.00 | 0.00 | 0.00 | 47 | 1012.1 |
| 20260504224424 | 17 | 207 | 3.2 | 4.8 | 0.00 | 0.00 | 0.00 | 46 | 1012.2 |
| 20260504224344 | 17 | 207 | 0.0 | 3.2 | 0.00 | 0.00 | 0.00 | 47 | 1012.2 |
| 20260504224325 | 17 | 206 | 0.0 | 3.2 | 0.00 | 0.00 | 0.00 | 47 | 1012.1 |
| 20260504224223 | 17 | 207 | 0.0 | 3.2 | 0.00 | 0.00 | 0.00 | 47 | 1012.3 |
| 20260504224212 | 17 | 218 | 1.6 | 6.4 | 0.00 | 0.00 | 0.00 | 45 | 1012.2 |
| 20260504224203 | 17 | 201 | 0.0 | 3.2 | 0.00 | 0.00 | 0.00 | 47 | 1012.2 |
| 20260504224147 | 17 | 204 | 0.0 | 4.8 | 0.00 | 0.00 | 0.00 | 47 | 1012.4 |
| 20260504224132 | 17 | 202 | 0.0 | 4.8 | 0.00 | 0.00 | 0.00 | 46 | 1012.2 |
| 20260504224117 | 17 | 198 | 0.0 | 4.8 | 0.00 | 0.00 | 0.00 | 46 | 1012.2 |
| 20260504224110 | 17 | 202 | 1.6 | 4.8 | 0.00 | 0.00 | 0.00 | 46 | 1012.0 |
| 20260504224055 | 17 | 165 | 0.0 | 4.8 | 0.00 | 0.00 | 0.00 | 46 | 1012.4 |
| 20260504224040 | 17 | 214 | 0.0 | 4.8 | 0.00 | 0.00 | 0.00 | 46 | 1012.5 |
| 20260504224023 | 17 | 205 | 0.0 | 4.8 | 0.00 | 0.00 | 0.00 | 47 | 1012.1 |
| 20260504223750 | 17 | 201 | 0.0 | 4.8 | 0.00 | 0.00 | 0.00 | 46 | 1012.3 |
| 20260504223741 | 17 | 202 | 0.0 | 4.8 | 0.00 | 0.00 | 0.00 | 46 | 1012.3 |
| 20260504223242 | 17 | 204 | 0.0 | 6.4 | 0.00 | 0.00 | 0.00 | 46 | 1012.3 |
| 20260504223225 | 17 | 229 | 4.8 | 6.4 | 0.00 | 0.00 | 0.00 | 45 | 1012.3 |
| 20260504222653 | 17 | 225 | 1.6 | 6.4 | 0.00 | 0.00 | 0.00 | 45 | 1012.5 |
| 20260504222555 | 17 | 203 | 0.0 | 9.7 | 0.00 | 0.00 | 0.00 | 46 | 1012.4 |
| 20260504222454 | 17 | 216 | 1.6 | 9.7 | 0.00 | 0.00 | 0.00 | 45 | 1012.2 |
| 20260504222340 | 17 | 203 | 0.0 | 9.7 | 0.00 | 0.00 | 0.00 | 45 | 1012.5 |
| 20260504222325 | 17 | 212 | 1.6 | 9.7 | 0.00 | 0.00 | 0.00 | 45 | 1012.3 |
| 20260504222234 | 17 | 211 | 1.6 | 9.7 | 0.00 | 0.00 | 0.00 | 46 | 1012.2 |
| 20260504222124 | 17 | 222 | 4.8 | 9.7 | 0.00 | 0.00 | 0.00 | 46 | 1012.4 |
| 20260504222025 | 17 | 224 | 1.6 | 9.7 | 0.00 | 0.00 | 0.00 | 46 | 1012.2 |
| 20260504221924 | 17 | 216 | 1.6 | 9.7 | 0.00 | 0.00 | 0.00 | 46 | 1012.4 |
| 20260504221825 | 17 | 220 | 1.6 | 9.7 | 0.00 | 0.00 | 0.00 | 46 | 1012.5 |
| 20260504221724 | 17 | 243 | 3.2 | 9.7 | 0.00 | 0.00 | 0.00 | 46 | 1012.5 |
| 20260504221624 | 17 | 239 | 6.4 | 9.7 | 0.00 | 0.00 | 0.00 | 46 | 1012.3 |
| 20260504221523 | 17 | 223 | 1.6 | 9.7 | 0.00 | 0.00 | 0.00 | 46 | 1012.3 |
| 20260504221418 | 17 | 217 | 1.6 | 9.7 | 0.00 | 0.00 | 0.00 | 47 | 1012.2 |
| 20260504221318 | 17 | 233 | 4.8 | 9.7 | 0.00 | 0.00 | 0.00 | 47 | 1012.6 |
| 20260504221217 | 17 | 229 | 3.2 | 9.7 | 0.00 | 0.00 | 0.00 | 47 | 1012.3 |
| 20260504221127 | 17 | 230 | 6.4 | 9.7 | 0.00 | 0.00 | 0.00 | 47 | 1012.3 |
| 20260504221112 | 17 | 211 | 0.0 | 9.7 | 0.00 | 0.00 | 0.00 | 47 | 1012.2 |
| 20260504221056 | 17 | 209 | 1.6 | 9.7 | 0.00 | 0.00 | 0.00 | 47 | 1012.3 |
| 20260504220830 | 17 | 229 | 4.8 | 9.7 | 0.00 | 0.00 | 0.00 | 47 | 1012.3 |
| 20260504220718 | 17 | 227 | 3.2 | 6.4 | 0.00 | 0.00 | 0.00 | 48 | 1012.2 |
| 20260504220617 | 17 | 213 | 3.2 | 6.4 | 0.00 | 0.00 | 0.00 | 48 | 1012.4 |
| 20260504220512 | 17 | 225 | 6.4 | 6.4 | 0.00 | 0.00 | 0.00 | 48 | 1012.3 |
| 20260504220412 | 17 | 213 | 3.2 | 6.4 | 0.00 | 0.00 | 0.00 | 48 | 1012.5 |
| 20260504220312 | 17 | 211 | 0.0 | 6.4 | 0.00 | 0.00 | 0.00 | 48 | 1012.4 |
| 20260504220212 | 17 | 205 | 0.0 | 6.4 | 0.00 | 0.00 | 0.00 | 48 | 1012.3 |
| 20260504220112 | 17 | 222 | 1.6 | 6.4 | 0.00 | 0.00 | 0.00 | 48 | 1012.5 |
| 20260504220013 | 17 | 214 | 1.6 | 6.4 | 0.00 | 0.00 | 0.00 | 48 | 1012.5 |
| 20260504215912 | 17 | 210 | 1.6 | 6.4 | 0.00 | 0.00 | 0.00 | 48 | 1012.4 |
| 20260504215812 | 17 | 204 | 1.6 | 6.4 | 0.00 | 0.00 | 0.00 | 48 | 1012.2 |
| 20260504215748 | 17 | 235 | 4.8 | 4.8 | 0.00 | 0.00 | 0.00 | 47 | 1012.4 |
| 20260504215731 | 17 | 224 | 4.8 | 4.8 | 0.00 | 0.00 | 0.00 | 47 | 1012.4 |
| 20260504215410 | 17 | 210 | 3.2 | 4.8 | 0.00 | 0.00 | 0.00 | 47 | 1012.4 |
| 20260504215311 | 17 | 209 | 1.6 | 3.2 | 0.00 | 0.00 | 0.00 | 48 | 1012.4 |
| 20260504215210 | 17 | 211 | 1.6 | 3.2 | 0.00 | 0.00 | 0.00 | 48 | 1012.3 |
| 20260504215136 | 17 | 201 | 0.0 | 1.6 | 0.00 | 0.00 | 0.00 | 47 | 1012.5 |
| 20260504215130 | 17 | 214 | 1.6 | 3.2 | 0.00 | 0.00 | 0.00 | 48 | 1012.3 |
| 20260504215114 | 17 | 194 | 0.0 | 1.6 | 0.00 | 0.00 | 0.00 | 48 | 1012.3 |
| 20260504215059 | 17 | 195 | 0.0 | 1.6 | 0.00 | 0.00 | 0.00 | 48 | 1012.2 |
| 20260504214832 | 17 | 196 | 0.0 | 1.6 | 0.00 | 0.00 | 0.00 | 48 | 1012.4 |
| 20260504214818 | 17 | 196 | 0.0 | 1.6 | 0.00 | 0.00 | 0.00 | 47 | 1012.3 |
| 20260504214802 | 17 | 196 | 0.0 | 1.6 | 0.00 | 0.00 | 0.00 | 47 | 1012.3 |
| 20260504214746 | 17 | 198 | 0.0 | 1.6 | 0.00 | 0.00 | 0.00 | 47 | 1012.5 |
| 20260504214731 | 17 | 191 | 0.0 | 1.6 | 0.00 | 0.00 | 0.00 | 46 | 1012.4 |
| 20260504214231 | 17 | 203 | 0.0 | 1.6 | 0.00 | 0.00 | 0.00 | 47 | 1012.6 |
| 20260504214214 | 17 | 202 | 0.0 | 1.6 | 0.00 | 0.00 | 0.00 | 47 | 1012.2 |
| 20260504213854 | 17 | 215 | 0.0 | 1.6 | 0.00 | 0.00 | 0.00 | 46 | 1012.4 |
| 20260504213754 | 17 | 199 | 0.0 | 1.6 | 0.00 | 0.00 | 0.00 | 47 | 1012.4 |
| 20260504213654 | 17 | 201 | 0.0 | 3.2 | 0.00 | 0.00 | 0.00 | 47 | 1012.4 |
| 20260504213628 | 17 | 204 | 0.0 | 6.4 | 0.00 | 0.00 | 0.00 | 47 | 1012.4 |
| 20260504213612 | 17 | 201 | 0.0 | 6.4 | 0.00 | 0.00 | 0.00 | 47 | 1012.5 |
| 20260504213252 | 17 | 201 | 0.0 | 6.4 | 0.00 | 0.00 | 0.00 | 47 | 1012.3 |
| 20260504213225 | 17 | 202 | 0.0 | 6.4 | 0.00 | 0.00 | 0.00 | 47 | 1012.5 |
| 20260504213208 | 17 | 207 | 0.0 | 6.4 | 0.00 | 0.00 | 0.00 | 47 | 1012.3 |
| 20260504212848 | 17 | 208 | 1.6 | 6.4 | 0.00 | 0.00 | 0.00 | 46 | 1012.5 |
| 20260504212747 | 17 | 202 | 1.6 | 6.4 | 0.00 | 0.00 | 0.00 | 46 | 1012.6 |
| 20260504212647 | 17 | 213 | 4.8 | 6.4 | 0.00 | 0.00 | 0.00 | 46 | 1012.4 |
| 20260504212548 | 17 | 220 | 1.6 | 4.8 | 0.00 | 0.00 | 0.00 | 47 | 1012.3 |
| 20260504212448 | 17 | 215 | 3.2 | 4.8 | 0.00 | 0.00 | 0.00 | 47 | 1012.2 |
| 20260504212347 | 17 | 199 | 0.0 | 4.8 | 0.00 | 0.00 | 0.00 | 47 | 1012.4 |
| 20260504212307 | 17 | 210 | 1.6 | 6.4 | 0.00 | 0.00 | 0.00 | 47 | 1012.4 |
| 20260504212224 | 17 | 204 | 0.0 | 6.4 | 0.00 | 0.00 | 0.00 | 48 | 1012.3 |
| 20260504212208 | 17 | 217 | 3.2 | 6.4 | 0.00 | 0.00 | 0.00 | 48 | 1012.4 |
| 20260504211858 | 17 | 219 | 3.2 | 4.8 | 0.00 | 0.00 | 0.00 | 48 | 1012.5 |
| 20260504211853 | 17 | 204 | 0.0 | 6.4 | 0.00 | 0.00 | 0.00 | 48 | 1012.5 |
| 20260504211831 | 17 | 211 | 0.0 | 6.4 | 0.00 | 0.00 | 0.00 | 48 | 1012.4 |
| 20260504211814 | 17 | 205 | 0.0 | 6.4 | 0.00 | 0.00 | 0.00 | 48 | 1012.3 |
| 20260504211538 | 17 | 203 | 0.0 | 6.4 | 0.00 | 0.00 | 0.00 | 48 | 1012.3 |
| 20260504211522 | 17 | 210 | 3.2 | 6.4 | 0.00 | 0.00 | 0.00 | 48 | 1012.4 |
| 20260504211504 | 17 | 219 | 3.2 | 4.8 | 0.00 | 0.00 | 0.00 | 48 | 1012.5 |
| 20260504211141 | 17 | 205 | 0.0 | 4.8 | 0.00 | 0.00 | 0.00 | 48 | 1012.3 |
| 20260504211046 | 17 | 194 | 0.0 | 6.4 | 0.00 | 0.00 | 0.00 | 49 | 1012.3 |
| 20260504210943 | 17 | 226 | 0.0 | 6.4 | 0.00 | 0.00 | 0.00 | 49 | 1012.5 |
| 20260504210842 | 17 | 209 | 1.6 | 6.4 | 0.00 | 0.00 | 0.00 | 48 | 1012.2 |
| 20260504210741 | 17 | 209 | 0.0 | 6.4 | 0.00 | 0.00 | 0.00 | 48 | 1012.4 |
| 20260504210717 | 17 | 212 | 0.0 | 6.4 | 0.00 | 0.00 | 0.00 | 48 | 1012.3 |
| 20260504210702 | 17 | 214 | 1.6 | 6.4 | 0.00 | 0.00 | 0.00 | 48 | 1012.4 |
| 20260504210340 | 18 | 203 | 0.0 | 9.7 | 0.00 | 0.00 | 0.00 | 48 | 1012.5 |
| 20260504210314 | 18 | 196 | 0.0 | 9.7 | 0.00 | 0.00 | 0.00 | 48 | 1012.5 |
| 20260504210257 | 18 | 211 | 1.6 | 9.7 | 0.00 | 0.00 | 0.00 | 48 | 1012.4 |
| 20260504205938 | 18 | 210 | 0.0 | 9.7 | 0.00 | 0.00 | 0.00 | 48 | 1012.4 |
| 20260504205921 | 18 | 218 | 0.0 | 9.7 | 0.00 | 0.00 | 0.00 | 48 | 1012.6 |
| 20260504205859 | 18 | 228 | 1.6 | 9.7 | 0.00 | 0.00 | 0.00 | 47 | 1012.6 |
| 20260504205536 | 18 | 216 | 4.8 | 9.7 | 0.00 | 0.00 | 0.00 | 47 | 1012.4 |
| 20260504205437 | 18 | 198 | 0.0 | 6.4 | 0.00 | 0.00 | 0.00 | 48 | 1012.3 |
| 20260504205335 | 18 | 211 | 4.8 | 6.4 | 0.00 | 0.00 | 0.00 | 47 | 1012.4 |
| 20260504205236 | 18 | 218 | 1.6 | 4.8 | 0.00 | 0.00 | 0.00 | 48 | 1012.4 |
| 20260504205211 | 18 | 222 | 0.0 | 4.8 | 0.00 | 0.00 | 0.00 | 48 | 1012.4 |
| 20260504205155 | 18 | 210 | 0.0 | 4.8 | 0.00 | 0.00 | 0.00 | 48 | 1012.4 |
| 20260504204834 | 18 | 200 | 0.0 | 4.8 | 0.00 | 0.00 | 0.00 | 47 | 1012.5 |
| 20260504204734 | 18 | 203 | 0.0 | 4.8 | 0.00 | 0.00 | 0.00 | 47 | 1012.4 |
| 20260504204708 | 18 | 220 | 3.2 | 4.8 | 0.00 | 0.00 | 0.00 | 47 | 1012.5 |
| 20260504204651 | 18 | 223 | 1.6 | 4.8 | 0.00 | 0.00 | 0.00 | 47 | 1012.6 |
| 20260504204330 | 18 | 205 | 3.2 | 4.8 | 0.00 | 0.00 | 0.00 | 47 | 1012.5 |
| 20260504204240 | 18 | 215 | 4.8 | 4.8 | 0.00 | 0.00 | 0.00 | 47 | 1012.5 |
| 20260504204223 | 18 | 204 | 1.6 | 6.4 | 0.00 | 0.00 | 0.00 | 47 | 1012.4 |
| 20260504204207 | 18 | 225 | 3.2 | 6.4 | 0.00 | 0.00 | 0.00 | 46 | 1012.3 |
| 20260504204151 | 18 | 200 | 0.0 | 6.4 | 0.00 | 0.00 | 0.00 | 47 | 1012.5 |
| 20260504204136 | 18 | 221 | 3.2 | 9.7 | 0.00 | 0.00 | 0.00 | 46 | 1012.6 |
| 20260504204114 | 18 | 193 | 3.2 | 9.7 | 0.00 | 0.00 | 0.00 | 46 | 1012.4 |
| 20260504204058 | 18 | 220 | 1.6 | 9.7 | 0.00 | 0.00 | 0.00 | 47 | 1012.2 |
| 20260504204044 | 18 | 211 | 0.0 | 9.7 | 0.00 | 0.00 | 0.00 | 47 | 1012.4 |
| 20260504203807 | 18 | 229 | 0.0 | 9.7 | 0.00 | 0.00 | 0.00 | 47 | 1012.3 |
| 20260504203744 | 18 | 203 | 4.8 | 9.7 | 0.00 | 0.00 | 0.00 | 46 | 1012.5 |
| 20260504203244 | 18 | 228 | 6.4 | 9.7 | 0.00 | 0.00 | 0.00 | 47 | 1012.5 |
| 20260504203002 | 18 | 217 | 3.2 | 12.9 | 0.00 | 0.00 | 0.00 | 47 | 1012.4 |
| 20260504202944 | 18 | 207 | 1.6 | 12.9 | 0.00 | 0.00 | 0.00 | 47 | 1012.4 |
| 20260504202709 | 18 | 217 | 3.2 | 12.9 | 0.00 | 0.00 | 0.00 | 47 | 1012.3 |
| 20260504202217 | 18 | 210 | 1.6 | 12.9 | 0.00 | 0.00 | 0.00 | 47 | 1012.4 |
| 20260504202117 | 18 | 215 | 4.8 | 12.9 | 0.00 | 0.00 | 0.00 | 48 | 1012.4 |
| 20260504202047 | 18 | 219 | 4.8 | 12.9 | 0.00 | 0.00 | 0.00 | 48 | 1012.4 |
| 20260504202030 | 18 | 237 | 3.2 | 12.9 | 0.00 | 0.00 | 0.00 | 48 | 1012.4 |
| 20260504202014 | 18 | 210 | 3.2 | 12.9 | 0.00 | 0.00 | 0.00 | 48 | 1012.2 |
| 20260504201951 | 18 | 221 | 4.8 | 11.3 | 0.00 | 0.00 | 0.00 | 49 | 1012.3 |
| 20260504201412 | 18 | 205 | 1.6 | 6.4 | 0.00 | 0.00 | 0.00 | 49 | 1012.3 |
| 20260504201314 | 18 | 241 | 3.2 | 6.4 | 0.00 | 0.00 | 0.00 | 50 | 1012.4 |
| 20260504201213 | 18 | 206 | 1.6 | 6.4 | 0.00 | 0.00 | 0.00 | 49 | 1012.3 |
| 20260504201110 | 18 | 192 | 0.0 | 6.4 | 0.00 | 0.00 | 0.00 | 50 | 1012.3 |
| 20260504201010 | 18 | 207 | 3.2 | 6.4 | 0.00 | 0.00 | 0.00 | 50 | 1012.3 |
| 20260504200910 | 18 | 187 | 0.0 | 6.4 | 0.00 | 0.00 | 0.00 | 50 | 1012.3 |
| 20260504200810 | 18 | 215 | 1.6 | 6.4 | 0.00 | 0.00 | 0.00 | 50 | 1012.3 |
| 20260504200711 | 18 | 237 | 1.6 | 6.4 | 0.00 | 0.00 | 0.00 | 50 | 1012.3 |
| 20260504200610 | 18 | 191 | 0.0 | 6.4 | 0.00 | 0.00 | 0.00 | 50 | 1012.3 |
| 20260504200554 | 18 | 218 | 1.6 | 4.8 | 0.00 | 0.00 | 0.00 | 51 | 1012.3 |
| 20260504200546 | 18 | 223 | 4.8 | 6.4 | 0.00 | 0.00 | 0.00 | 50 | 1012.4 |
| 20260504200525 | 18 | 213 | 4.8 | 6.4 | 0.00 | 0.00 | 0.00 | 51 | 1012.4 |
| 20260504200510 | 18 | 221 | 0.0 | 4.8 | 0.00 | 0.00 | 0.00 | 51 | 1012.2 |
| 20260504200452 | 18 | 218 | 1.6 | 4.8 | 0.00 | 0.00 | 0.00 | 51 | 1012.3 |
| 20260504200225 | 18 | 215 | 0.0 | 4.8 | 0.00 | 0.00 | 0.00 | 51 | 1012.2 |
| 20260504195904 | 18 | 203 | 0.0 | 6.4 | 0.00 | 0.00 | 0.00 | 52 | 1012.3 |
| 20260504195759 | 18 | 221 | 1.6 | 6.4 | 0.00 | 0.00 | 0.00 | 52 | 1012.3 |
| 20260504195658 | 18 | 217 | 0.0 | 6.4 | 0.00 | 0.00 | 0.00 | 52 | 1012.3 |
| 20260504195653 | 18 | 200 | 0.0 | 6.4 | 0.00 | 0.00 | 0.00 | 52 | 1012.3 |
| 20260504195542 | 19 | 201 | 0.0 | 6.4 | 0.00 | 0.00 | 0.00 | 52 | 1012.2 |
| 20260504195443 | 19 | 204 | 0.0 | 6.4 | 0.00 | 0.00 | 0.00 | 52 | 1012.3 |
| 20260504195427 | 19 | 224 | 3.2 | 6.4 | 0.00 | 0.00 | 0.00 | 52 | 1012.2 |
| 20260504195411 | 19 | 204 | 1.6 | 6.4 | 0.00 | 0.00 | 0.00 | 51 | 1012.4 |
| 20260504195356 | 19 | 209 | 1.6 | 6.4 | 0.00 | 0.00 | 0.00 | 52 | 1012.6 |
| 20260504195042 | 19 | 225 | 1.6 | 6.4 | 0.00 | 0.00 | 0.00 | 51 | 1012.3 |
| 20260504194940 | 19 | 202 | 0.0 | 4.8 | 0.00 | 0.00 | 0.00 | 52 | 1012.3 |
| 20260504194840 | 19 | 222 | 3.2 | 4.8 | 0.00 | 0.00 | 0.00 | 52 | 1012.2 |
| 20260504194732 | 19 | 221 | 3.2 | 4.8 | 0.00 | 0.00 | 0.00 | 52 | 1012.1 |
| 20260504194650 | 19 | 212 | 1.6 | 4.8 | 0.00 | 0.00 | 0.00 | 52 | 1012.1 |
| 20260504194630 | 19 | 225 | 1.6 | 4.8 | 0.00 | 0.00 | 0.00 | 52 | 1012.3 |
| 20260504194530 | 19 | 224 | 4.8 | 4.8 | 0.00 | 0.00 | 0.00 | 52 | 1012.1 |
| 20260504194430 | 19 | 222 | 1.6 | 4.8 | 0.00 | 0.00 | 0.00 | 52 | 1012.3 |
| 20260504194328 | 19 | 216 | 3.2 | 4.8 | 0.00 | 0.00 | 0.00 | 52 | 1012.5 |
| 20260504194303 | 19 | 207 | 0.0 | 6.4 | 0.00 | 0.00 | 0.00 | 52 | 1012.6 |
| 20260504194248 | 19 | 215 | 3.2 | 6.4 | 0.00 | 0.00 | 0.00 | 51 | 1012.6 |
| 20260504194124 | 19 | 211 | 3.2 | 6.4 | 0.00 | 0.00 | 0.00 | 51 | 1012.3 |
| 20260504194022 | 19 | 208 | 0.0 | 6.4 | 0.00 | 0.00 | 0.00 | 51 | 1012.4 |
| 20260504193914 | 19 | 234 | 3.2 | 6.4 | 0.00 | 0.00 | 0.00 | 51 | 1012.1 |
| 20260504193806 | 19 | 220 | 3.2 | 6.4 | 0.00 | 0.00 | 0.00 | 51 | 1012.3 |
| 20260504193636 | 19 | 217 | 3.2 | 6.4 | 0.00 | 0.00 | 0.00 | 51 | 1012.3 |
| 20260504193552 | 19 | 215 | 3.2 | 6.4 | 0.00 | 0.00 | 0.00 | 51 | 1012.4 |
| 20260504193453 | 20 | 221 | 3.2 | 6.4 | 0.00 | 0.00 | 0.00 | 51 | 1012.2 |
| 20260504193348 | 20 | 227 | 3.2 | 6.4 | 0.00 | 0.00 | 0.00 | 51 | 1012.2 |
| 20260504193247 | 20 | 230 | 3.2 | 4.8 | 0.00 | 0.00 | 0.00 | 51 | 1012.1 |
| 20260504193146 | 20 | 228 | 4.8 | 4.8 | 0.00 | 0.00 | 0.00 | 51 | 1012.1 |
| 20260504193130 | 20 | 221 | 3.2 | 4.8 | 0.00 | 0.00 | 0.00 | 51 | 1012.3 |
| 20260504193047 | 19 | 209 | 1.6 | 4.8 | 0.00 | 0.00 | 0.00 | 51 | 1012.3 |
| 20260504192947 | 19 | 227 | 3.2 | 4.8 | 0.00 | 0.00 | 0.00 | 51 | 1012.2 |
| 20260504192847 | 19 | 220 | 1.6 | 4.8 | 0.00 | 0.00 | 0.00 | 51 | 1012.2 |
| 20260504192746 | 19 | 211 | 1.6 | 4.8 | 0.00 | 0.00 | 0.00 | 51 | 1012.4 |
| 20260504192648 | 19 | 224 | 0.0 | 4.8 | 0.00 | 0.00 | 0.00 | 51 | 1012.4 |
| 20260504192632 | 19 | 224 | 0.0 | 4.8 | 0.00 | 0.00 | 0.00 | 51 | 1012.1 |
| 20260504192622 | 20 | 199 | 0.0 | 4.8 | 0.00 | 0.00 | 0.00 | 51 | 1012.1 |
| 20260504192606 | 20 | 201 | 0.0 | 4.8 | 0.00 | 0.00 | 0.00 | 51 | 1012.2 |
| 20260504192308 | 20 | 200 | 0.0 | 4.8 | 0.00 | 0.00 | 0.00 | 51 | 1012.0 |
| 20260504192251 | 20 | 205 | 0.0 | 4.8 | 0.00 | 0.00 | 0.00 | 51 | 1012.0 |
| 20260504192240 | 20 | 211 | 0.0 | 4.8 | 0.00 | 0.00 | 0.00 | 51 | 1012.0 |
| 20260504192227 | 20 | 211 | 1.6 | 4.8 | 0.00 | 0.00 | 0.00 | 50 | 1012.2 |
| 20260504192212 | 20 | 208 | 0.0 | 4.8 | 0.00 | 0.00 | 0.00 | 50 | 1012.1 |
| 20260504191630 | 20 | 211 | 0.0 | 3.2 | 0.00 | 0.00 | 0.00 | 51 | 1012.0 |
| 20260504191531 | 20 | 211 | 1.6 | 3.2 | 0.00 | 0.00 | 0.00 | 51 | 1012.2 |
| 20260504191504 | 19 | 188 | 0.0 | 0.0 | 0.00 | 0.00 | 0.00 | 54 | 1012.4 |
| 20260504191459 | 19 | 186 | 0.0 | 1.6 | 0.00 | 0.00 | 0.00 | 54 | 1012.1 |
| 20260504191451 | 20 | 210 | 0.0 | 3.2 | 0.00 | 0.00 | 0.00 | 50 | 1012.1 |
| 20260504191435 | 20 | 210 | 0.0 | 3.2 | 0.00 | 0.00 | 0.00 | 50 | 1012.2 |
| 20260504191418 | 20 | 220 | 1.6 | 3.2 | 0.00 | 0.00 | 0.00 | 50 | 1012.2 |
| 20260504191151 | 20 | 204 | 0.0 | 3.2 | 0.00 | 0.00 | 0.00 | 51 | 1012.1 |
| 20260504191132 | 19 | 211 | 0.0 | 3.2 | 0.00 | 0.00 | 0.00 | 51 | 1012.0 |
| 20260504191116 | 19 | 213 | 1.6 | 3.2 | 0.00 | 0.00 | 0.00 | 51 | 1012.2 |
| 20260504190838 | 19 | 203 | 0.0 | 1.6 | 0.00 | 0.00 | 0.00 | 52 | 1012.4 |
| 20260504190815 | 19 | 198 | 0.0 | 1.6 | 0.00 | 0.00 | 0.00 | 52 | 1012.4 |
| 20260504190759 | 19 | 196 | 0.0 | 1.6 | 0.00 | 0.00 | 0.00 | 52 | 1012.3 |
| 20260504190743 | 19 | 198 | 0.0 | 1.6 | 0.00 | 0.00 | 0.00 | 52 | 1012.1 |
| 20260504190727 | 19 | 191 | 0.0 | 0.0 | 0.00 | 0.00 | 0.00 | 53 | 1012.2 |
| 20260504190711 | 19 | 188 | 0.0 | 0.0 | 0.00 | 0.00 | 0.00 | 54 | 1012.3 |
| 20260504190649 | 19 | 188 | 0.0 | 0.0 | 0.00 | 0.00 | 0.00 | 53 | 1012.1 |
| 20260504190412 | 19 | 188 | 0.0 | 0.0 | 0.00 | 0.00 | 0.00 | 54 | 1012.3 |
| 20260504190357 | 19 | 188 | 0.0 | 0.0 | 0.00 | 0.00 | 0.00 | 54 | 1012.1 |
| 20260504190341 | 19 | 188 | 0.0 | 0.0 | 0.00 | 0.00 | 0.00 | 54 | 1012.0 |
| 20260504190324 | 19 | 188 | 0.0 | 0.0 | 0.00 | 0.00 | 0.00 | 54 | 1012.4 |
| 20260504190046 | 19 | 188 | 0.0 | 1.6 | 0.00 | 0.00 | 0.00 | 54 | 1012.0 |
| 20260504185550 | 19 | 186 | 0.0 | 1.6 | 0.00 | 0.00 | 0.00 | 54 | 1012.0 |
| 20260504185533 | 19 | 186 | 0.0 | 1.6 | 0.00 | 0.00 | 0.00 | 54 | 1012.1 |
| 20260504185305 | 20 | 185 | 0.0 | 6.4 | 0.00 | 0.00 | 0.00 | 54 | 1012.1 |
| 20260504184724 | 20 | 190 | 0.0 | 6.4 | 0.00 | 0.00 | 0.00 | 53 | 1012.0 |
| 20260504184657 | 20 | 190 | 0.0 | 6.4 | 0.00 | 0.00 | 0.00 | 52 | 1012.2 |
| 20260504184643 | 20 | 191 | 0.0 | 6.4 | 0.00 | 0.00 | 0.00 | 52 | 1011.8 |
| 20260504184407 | 20 | 189 | 0.0 | 1.6 | 0.00 | 0.00 | 0.00 | 51 | 1011.8 |
| 20260504184358 | 20 | 189 | 0.0 | 6.4 | 0.00 | 0.00 | 0.00 | 52 | 1012.0 |
| 20260504184342 | 20 | 194 | 0.0 | 6.4 | 0.00 | 0.00 | 0.00 | 52 | 1011.9 |
| 20260504184320 | 20 | 204 | 6.4 | 6.4 | 0.00 | 0.00 | 0.00 | 50 | 1011.8 |
| 20260504184053 | 20 | 185 | 0.0 | 1.6 | 0.00 | 0.00 | 0.00 | 51 | 1011.8 |
| 20260504184037 | 20 | 190 | 0.0 | 1.6 | 0.00 | 0.00 | 0.00 | 51 | 1011.9 |
| 20260504184022 | 20 | 194 | 0.0 | 1.6 | 0.00 | 0.00 | 0.00 | 51 | 1011.9 |
| 20260504184006 | 20 | 194 | 0.0 | 1.6 | 0.00 | 0.00 | 0.00 | 52 | 1011.9 |
| 20260504183948 | 20 | 189 | 0.0 | 1.6 | 0.00 | 0.00 | 0.00 | 51 | 1011.8 |
| 20260504183722 | 20 | 194 | 0.0 | 1.6 | 0.00 | 0.00 | 0.00 | 52 | 1012.0 |
| 20260504183705 | 20 | 196 | 0.0 | 1.6 | 0.00 | 0.00 | 0.00 | 52 | 1011.8 |
| 20260504183202 | 20 | 191 | 0.0 | 0.0 | 0.00 | 0.00 | 0.00 | 51 | 1011.8 |
| 20260504183144 | 20 | 191 | 0.0 | 0.0 | 0.00 | 0.00 | 0.00 | 51 | 1012.0 |
| 20260504182824 | 20 | 191 | 0.0 | 0.0 | 0.00 | 0.00 | 0.00 | 51 | 1012.0 |
| 20260504182723 | 20 | 191 | 0.0 | 0.0 | 0.00 | 0.00 | 0.00 | 51 | 1011.9 |
| 20260504182624 | 20 | 191 | 0.0 | 0.0 | 0.00 | 0.00 | 0.00 | 51 | 1012.1 |
| 20260504182524 | 20 | 191 | 0.0 | 0.0 | 0.00 | 0.00 | 0.00 | 52 | 1011.8 |
| 20260504182501 | 20 | 191 | 0.0 | 0.0 | 0.00 | 0.00 | 0.00 | 52 | 1011.7 |
| 20260504182445 | 20 | 191 | 0.0 | 0.0 | 0.00 | 0.00 | 0.00 | 51 | 1012.0 |
| 20260504182428 | 20 | 191 | 0.0 | 0.0 | 0.00 | 0.00 | 0.00 | 51 | 1012.0 |
| 20260504182406 | 20 | 191 | 0.0 | 0.0 | 0.00 | 0.00 | 0.00 | 51 | 1011.9 |
| 20260504182347 | 20 | 191 | 0.0 | 0.0 | 0.00 | 0.00 | 0.00 | 51 | 1011.7 |
| 20260504182330 | 20 | 191 | 0.0 | 0.0 | 0.00 | 0.00 | 0.00 | 51 | 1011.8 |
| 20260504181624 | 20 | 193 | 0.0 | 1.6 | 0.00 | 0.00 | 0.00 | 51 | 1011.7 |
| 20260504181523 | 20 | 186 | 0.0 | 1.6 | 0.00 | 0.00 | 0.00 | 51 | 1012.0 |
| 20260504181423 | 20 | 188 | 0.0 | 1.6 | 0.00 | 0.00 | 0.00 | 51 | 1011.6 |
| 20260504181324 | 21 | 191 | 0.0 | 1.6 | 0.00 | 0.00 | 0.00 | 50 | 1011.8 |
| 20260504181252 | 21 | 181 | 0.0 | 1.6 | 0.00 | 0.00 | 0.00 | 51 | 1011.8 |
| 20260504181228 | 21 | 190 | 0.0 | 1.6 | 0.00 | 0.00 | 0.00 | 50 | 1011.7 |
| 20260504181211 | 21 | 190 | 0.0 | 1.6 | 0.00 | 0.00 | 0.00 | 51 | 1011.7 |
| 20260504181155 | 21 | 191 | 0.0 | 1.6 | 0.00 | 0.00 | 0.00 | 50 | 1012.0 |
| 20260504181140 | 21 | 191 | 0.0 | 1.6 | 0.00 | 0.00 | 0.00 | 50 | 1011.6 |
| 20260504181125 | 21 | 192 | 0.0 | 1.6 | 0.00 | 0.00 | 0.00 | 50 | 1011.9 |
| 20260504180857 | 21 | 191 | 0.0 | 0.0 | 0.00 | 0.00 | 0.00 | 50 | 1011.6 |
| 20260504180842 | 21 | 192 | 0.0 | 0.0 | 0.00 | 0.00 | 0.00 | 50 | 1011.8 |
| 20260504180346 | 21 | 219 | 0.0 | 0.0 | 0.00 | 0.00 | 0.00 | 50 | 1012.1 |
| 20260504180119 | 21 | 192 | 0.0 | 0.0 | 0.00 | 0.00 | 0.00 | 50 | 1011.8 |
| 20260504180018 | 21 | 191 | 0.0 | 0.0 | 0.00 | 0.00 | 0.00 | 50 | 1011.7 |
| 20260504175917 | 21 | 188 | 0.0 | 0.0 | 0.00 | 0.00 | 0.00 | 50 | 1011.8 |
| 20260504175859 | 21 | 190 | 0.0 | 0.0 | 0.00 | 0.00 | 0.00 | 50 | 1011.8 |
| 20260504175843 | 21 | 194 | 0.0 | 0.0 | 0.00 | 0.00 | 0.00 | 50 | 1011.8 |
| 20260504175617 | 21 | 198 | 0.0 | 0.0 | 0.00 | 0.00 | 0.00 | 50 | 1011.8 |
| 20260504175517 | 21 | 192 | 0.0 | 0.0 | 0.00 | 0.00 | 0.00 | 49 | 1011.9 |
| 20260504175418 | 21 | 193 | 0.0 | 0.0 | 0.00 | 0.00 | 0.00 | 49 | 1012.1 |
| 20260504175318 | 21 | 188 | 0.0 | 0.0 | 0.00 | 0.00 | 0.00 | 49 | 1012.0 |
| 20260504175219 | 21 | 188 | 0.0 | 0.0 | 0.00 | 0.00 | 0.00 | 49 | 1011.9 |
| 20260504175117 | 21 | 191 | 0.0 | 0.0 | 0.00 | 0.00 | 0.00 | 49 | 1011.8 |
| 20260504175018 | 21 | 191 | 0.0 | 0.0 | 0.00 | 0.00 | 0.00 | 49 | 1011.9 |
| 20260504174953 | 21 | 190 | 0.0 | 0.0 | 0.00 | 0.00 | 0.00 | 49 | 1011.9 |
| 20260504174936 | 21 | 189 | 0.0 | 0.0 | 0.00 | 0.00 | 0.00 | 49 | 1011.7 |
| 20260504174921 | 21 | 187 | 0.0 | 0.0 | 0.00 | 0.00 | 0.00 | 49 | 1011.6 |
| 20260504174858 | 21 | 193 | 0.0 | 0.0 | 0.00 | 0.00 | 0.00 | 48 | 1012.0 |
| 20260504174841 | 21 | 190 | 0.0 | 0.0 | 0.00 | 0.00 | 0.00 | 48 | 1011.9 |
| 20260504174345 | 21 | 186 | 0.0 | 3.2 | 0.00 | 0.00 | 0.00 | 48 | 1011.8 |
| 20260504174118 | 21 | 188 | 0.0 | 3.2 | 0.00 | 0.00 | 0.00 | 48 | 1011.8 |
| 20260504174017 | 21 | 188 | 0.0 | 3.2 | 0.00 | 0.00 | 0.00 | 48 | 1011.8 |
| 20260504173917 | 21 | 186 | 0.0 | 3.2 | 0.00 | 0.00 | 0.00 | 48 | 1011.9 |
| 20260504173816 | 22 | 186 | 0.0 | 3.2 | 0.00 | 0.00 | 0.00 | 48 | 1011.8 |
| 20260504173717 | 22 | 189 | 0.0 | 3.2 | 0.00 | 0.00 | 0.00 | 49 | 1011.8 |
| 20260504173618 | 22 | 189 | 0.0 | 3.2 | 0.00 | 0.00 | 0.00 | 48 | 1011.6 |
| 20260504173541 | 22 | 191 | 0.0 | 3.2 | 0.00 | 0.00 | 0.00 | 48 | 1011.8 |
| 20260504173524 | 22 | 204 | 0.0 | 1.6 | 0.00 | 0.00 | 0.00 | 47 | 1011.8 |
| 20260504173206 | 22 | 192 | 0.0 | 1.6 | 0.00 | 0.00 | 0.00 | 47 | 1011.9 |
| 20260504173107 | 22 | 188 | 0.0 | 1.6 | 0.00 | 0.00 | 0.00 | 48 | 1011.8 |
| 20260504173058 | 22 | 192 | 0.0 | 1.6 | 0.00 | 0.00 | 0.00 | 47 | 1011.6 |
| 20260504172920 | 22 | 196 | 0.0 | 1.6 | 0.00 | 0.00 | 0.00 | 47 | 1011.7 |
| 20260504172811 | 22 | 188 | 0.0 | 3.2 | 0.00 | 0.00 | 0.00 | 47 | 1011.4 |
| 20260504172706 | 22 | 191 | 0.0 | 3.2 | 0.00 | 0.00 | 0.00 | 47 | 1012.0 |
| 20260504172606 | 22 | 188 | 0.0 | 3.2 | 0.00 | 0.00 | 0.00 | 47 | 1011.8 |
| 20260504172541 | 22 | 182 | 0.0 | 3.2 | 0.00 | 0.00 | 0.00 | 47 | 1011.6 |
| 20260504172533 | 22 | 188 | 0.0 | 3.2 | 0.00 | 0.00 | 0.00 | 47 | 1011.7 |
| 20260504172516 | 22 | 179 | 0.0 | 3.2 | 0.00 | 0.00 | 0.00 | 47 | 1011.6 |
| 20260504172501 | 22 | 194 | 0.0 | 3.2 | 0.00 | 0.00 | 0.00 | 47 | 1011.6 |
| 20260504172445 | 22 | 188 | 0.0 | 3.2 | 0.00 | 0.00 | 0.00 | 47 | 1011.6 |
| 20260504172420 | 22 | 191 | 0.0 | 3.2 | 0.00 | 0.00 | 0.00 | 47 | 1011.6 |
| 20260504171935 | 22 | 190 | 0.0 | 3.2 | 0.00 | 0.00 | 0.00 | 47 | 1011.7 |
| 20260504171918 | 22 | 191 | 0.0 | 3.2 | 0.00 | 0.00 | 0.00 | 47 | 1011.6 |
| 20260504171903 | 22 | 176 | 0.0 | 3.2 | 0.00 | 0.00 | 0.00 | 47 | 1011.7 |
| 20260504171844 | 22 | 182 | 0.0 | 3.2 | 0.00 | 0.00 | 0.00 | 47 | 1011.6 |
| 20260504171619 | 22 | 188 | 0.0 | 3.2 | 0.00 | 0.00 | 0.00 | 47 | 1011.7 |
| 20260504171259 | 22 | 196 | 0.0 | 3.2 | 0.00 | 0.00 | 0.00 | 46 | 1011.6 |
| 20260504171158 | 22 | 173 | 0.0 | 3.2 | 0.00 | 0.00 | 0.00 | 46 | 1011.6 |
| 20260504171059 | 22 | 182 | 0.0 | 3.2 | 0.00 | 0.00 | 0.00 | 46 | 1011.6 |
| 20260504171036 | 22 | 175 | 1.6 | 3.2 | 0.00 | 0.00 | 0.00 | 46 | 1011.7 |
| 20260504171020 | 22 | 192 | 0.0 | 1.6 | 0.00 | 0.00 | 0.00 | 46 | 1011.7 |
| 20260504170654 | 22 | 188 | 0.0 | 1.6 | 0.00 | 0.00 | 0.00 | 46 | 1011.5 |
| 20260504170607 | 22 | 183 | 0.0 | 1.6 | 0.00 | 0.00 | 0.00 | 46 | 1011.5 |
| 20260504170522 | 23 | 187 | 0.0 | 6.4 | 0.00 | 0.00 | 0.00 | 46 | 1011.8 |
| 20260504170516 | 23 | 174 | 0.0 | 0.0 | 0.00 | 0.00 | 0.00 | 45 | 1011.5 |
| 20260504170510 | 22 | 184 | 0.0 | 3.2 | 0.00 | 0.00 | 0.00 | 46 | 1011.7 |
| 20260504170453 | 22 | 227 | 0.0 | 3.2 | 0.00 | 0.00 | 0.00 | 46 | 1011.4 |
| 20260504170436 | 22 | 185 | 0.0 | 3.2 | 0.00 | 0.00 | 0.00 | 46 | 1011.6 |
| 20260504170421 | 23 | 182 | 0.0 | 6.4 | 0.00 | 0.00 | 0.00 | 46 | 1011.5 |
| 20260504170402 | 23 | 187 | 0.0 | 6.4 | 0.00 | 0.00 | 0.00 | 46 | 1011.8 |
| 20260504170137 | 23 | 191 | 0.0 | 6.4 | 0.00 | 0.00 | 0.00 | 46 | 1011.5 |
| 20260504170121 | 23 | 176 | 0.0 | 6.4 | 0.00 | 0.00 | 0.00 | 46 | 1011.5 |
| 20260504170104 | 23 | 194 | 0.0 | 6.4 | 0.00 | 0.00 | 0.00 | 46 | 1011.6 |
| 20260504151146 | 24 | 238 | 1.6 | 11.3 | 0.00 | 0.00 | 0.00 | 42 | 1011.9 |
| 20260504150901 | 24 | 174 | 1.6 | 17.7 | 0.00 | 0.00 | 0.00 | 43 | 1012.1 |
| 20260504150846 | 24 | 202 | 1.6 | 17.7 | 0.00 | 0.00 | 0.00 | 42 | 1012.1 |
| 20260504150610 | 24 | 188 | 0.0 | 17.7 | 0.00 | 0.00 | 0.00 | 43 | 1011.7 |
| 20260504150524 | 24 | 184 | 0.0 | 17.7 | 0.00 | 0.00 | 0.00 | 42 | 1011.9 |
| 20260504150425 | 24 | 203 | 0.0 | 17.7 | 0.00 | 0.00 | 0.00 | 42 | 1011.9 |
| 20260504150327 | 24 | 191 | 1.6 | 17.7 | 0.00 | 0.00 | 0.00 | 42 | 1011.9 |
| 20260504150221 | 24 | 194 | 4.8 | 17.7 | 0.00 | 0.00 | 0.00 | 42 | 1012.1 |
| 20260504150121 | 24 | 132 | 0.0 | 17.7 | 0.00 | 0.00 | 0.00 | 43 | 1011.9 |
| 20260504150107 | 24 | 201 | 1.6 | 17.7 | 0.00 | 0.00 | 0.00 | 42 | 1011.9 |
| 20260504141324 | 25 | 223 | 0.0 | 6.4 | 0.00 | 0.00 | 0.00 | 42 | 1012.3 |
| 20260504141308 | 25 | 182 | 0.0 | 6.4 | 0.00 | 0.00 | 0.00 | 42 | 1012.3 |
| 20260504141301 | 25 | 194 | 0.0 | 6.4 | 0.00 | 0.00 | 0.00 | 42 | 1012.3 |
| 20260504141026 | 25 | 224 | 1.6 | 9.7 | 0.00 | 0.00 | 0.00 | 42 | 1012.3 |
| 20260504140749 | 25 | 177 | 0.0 | 9.7 | 0.00 | 0.00 | 0.00 | 43 | 1012.3 |
| 20260504140510 | 25 | 181 | 0.0 | 9.7 | 0.00 | 0.00 | 0.00 | 43 | 1012.2 |
| 20260504140409 | 25 | 75 | 1.6 | 9.7 | 0.00 | 0.00 | 0.00 | 44 | 1012.4 |
| 20260504140307 | 25 | 163 | 0.0 | 9.7 | 0.00 | 0.00 | 0.00 | 43 | 1012.4 |
| 20260504140202 | 25 | 179 | 0.0 | 9.7 | 0.00 | 0.00 | 0.00 | 43 | 1012.4 |